     2.10           OBSERVATION DATA    G (GPS)             RINEX VERSION / TYPE
teqc 2006Apr13 CORS-ADM Account 20060628 00:04:02UTC        PGM / RUN BY / DATE
Solaris 5.9|UltraSparc IIi|cc -xarch=v9 SC5.5|=+-|*Sparc    COMMENT
teqc 2006Apr13 CORS/NGS/NOAA 20060628 00:04:01UTC           COMMENT
BIT 2 OF LLI FLAGS DATA COLLECTED UNDER A/S CONDITION       COMMENT
cnmr                                                        MARKER NAME
50512M001                                                   MARKER NUMBER
Peter Paul Camacho Commonwealth of the Northern Mariana Isl OBSERVER / AGENCY
0220233361 TRIMBLE 4700 7.29                                REC # / TYPE / VERS
0220238086 TRM33429.20+GP UNAV                              ANT # / TYPE
 -5087756.9960  3465027.2461  1664652.3620                  APPROX POSITION XYZ
        0.0000        0.0000        0.0000                  ANTENNA: DELTA H/E/N
     1     1                                                WAVELENGTH FACT L1/2
     7    C1    L1    L2    P1    P2    D1    D2            # / TYPES OF OBSERV
    30.0000                                                 INTERVAL
SNR is mapped to RINEX snr flag value [0-9]                 COMMENT
L1 & L2: min(max(int(snr_dBHz/6), 0), 9)                    COMMENT
Forced Modulo Decimation to 30 seconds                      COMMENT
  2006     6    27    23     0    0.0000000     GPS         TIME OF FIRST OBS
                                                            END OF HEADER
 06  6 27 23  0  0.0000000  0 10G 2G27G29G26G 4G10G24G17G 8G13
  20859788.4634  -21469395.77848 -16724476.56847                  20859783.3314
      2354.4974
  22622034.9484  -11331636.65448  -8825384.08846                  22622032.9754
      -339.0384
  22147044.2304   -9590238.88747  -7901153.89945                  22147041.5304
      2682.0364
  23468352.2664   -2900263.10647  -2578476.09343                  23468349.5764
      3557.2364
  20662392.5644  -24335346.50348 -18956677.68247                  20662389.9854
       342.9104
  22565096.2204   -9555305.35147  -8773964.86845                  22565094.5464
       867.6174
  21882609.7414  -15347884.68148 -13283464.34946                  21882607.6684
      -830.7524
  23158124.4394  -13242183.79047 -10304624.73645                  23158122.9334
     -3024.8194
  22173843.5324  -16108884.84748 -12543670.56246                  22173841.4694
      1773.9704
  24441616.8594   -6608986.66646  -5143781.80643                  24441617.0304
     -3175.2154
 06  6 27 23  0 30.0000000  0 10G 2G27G29G26G 4G10G24G17G 8G13
  20846373.7694  -21539890.57248 -16779407.58847                  20846368.5754
      2345.1764
  22624010.4314  -11321252.55347  -8817292.58946                  22624009.0454
      -353.1544
  22131771.6774   -9670493.53347  -7963689.97345                  22131768.8634
      2668.3844
  23448072.8244   -3006835.70247  -2661519.64143                  23448070.1394
      3547.6074
  20660470.9634  -24345445.23548 -18964546.84347                  20660468.1184
       330.3764
  22560144.8454   -9581327.42248  -8794241.81445                  22560141.9094
       867.1974
  21887386.8434  -15322778.27448 -13263900.95746                  21887385.1194
      -842.9934
  23175396.3154  -13151422.48747 -10233901.72645                  23175394.2324
     -3025.9084
  22163746.2994  -16161944.98348 -12585016.12546                  22163744.5984
      1763.3844
  24459744.2984   -6513734.04046  -5069559.08643                  24459743.5484
     -3174.9074
 06  6 27 23  1  0.0000000  0 10G 2G27G29G26G 4G10G24G17G 8G13
  20833011.8644  -21610107.14248 -16834121.80847                  20833006.7064
      2335.6844
  22626067.1574  -11310443.32747  -8808869.82746                  22626065.9884
      -367.5734
  22116577.6724   -9750340.62547  -8025908.49145                  22116574.4344
      2654.5314
  23427846.1834   -3113121.57046  -2744339.71543                  23427844.9404
      3537.6174
  20658620.0464  -24355169.67147 -18972124.34347                  20658617.6804
       317.7204
  22555194.7144   -9607339.14948  -8814510.69045                  22555191.1364
       866.7294
  21892234.3984  -15297304.19148 -13244051.07046                  21892232.6384
      -855.5324
  23192673.8004  -13060631.61747 -10163155.67345                  23192670.9044
     -3026.9974
  22153709.9044  -16214686.68748 -12626113.56346                  22153708.0624
      1752.5344
  24477866.3004   -6418500.40646  -4995351.17343                  24477865.9244
     -3174.2924
 06  6 27 23  1 30.0000000  0 10G 2G27G29G26G 4G10G24G17G 8G13
  20819703.9574  -21680043.08248 -16888617.35547                  20819698.5474
      2326.6554
  22628205.1904  -11299208.82047  -8800115.67846                  22628204.1214
      -381.3874
  22101460.5994   -9829779.10847  -8087808.58245                  22101458.1694
      2641.3284
  23407676.2214   -3219118.69046  -2826934.87343                  23407674.5804
      3528.6524
  20656841.2084  -24364518.90948 -18979409.47347                  20656838.7944
       305.5524
  22550246.4134   -9633342.18247  -8834772.80845                  22550243.7364
       866.7434
  21897152.3594  -15271462.18548 -13223914.46946                  21897151.1394
      -867.4124
  23209954.9414  -12969814.43047 -10092389.11545                  23209952.7854
     -3027.4564
  22143734.7004  -16267107.69948 -12666961.11546                  22143732.6914
      1742.1784
  24495984.2604   -6323288.28446  -4921160.09743                  24495984.0704
     -3173.1014
 06  6 27 23  2  0.0000000  0 10G 2G27G29G26G 4G10G24G17G 8G13
  20806448.9724  -21749698.32848 -16942894.16847                  20806443.2994
      2317.0464
  22630423.7514  -11287551.87947  -8791032.34346                  22630422.2984
      -395.7964
  22086421.2804   -9908810.48847  -8149391.46845                  22086418.3614
      2627.4174
  23387560.3674   -3324827.92346  -2909305.68243                  23387557.9754
      3518.6234
  20655133.8094  -24373494.36048 -18986403.35547                  20655130.9684
       292.8914
  22545299.2374   -9659340.36348  -8855031.14845                  22545295.8154
       866.4264
  21902139.3714  -15245254.04248 -13203492.58546                  21902137.9914
      -879.8634
  23227240.6534  -12878976.44247 -10021606.32845                  23227239.7974
     -3028.2864
  22133820.4164  -16319207.73448 -12707558.55046                  22133818.7994
      1731.2554
  24514097.7184   -6228102.51946  -4846989.51444                  24514098.0404
     -3172.5244
 06  6 27 23  2 30.0000000  0  9G 2G27G29G26G 4G10G24G17G 8
  20793248.9314  -21819066.31648 -16996947.15447                  20793243.1814
      2307.4714
  22632723.6414  -11275468.03247  -8781616.36546                  22632721.6084
      -409.9464
  22071461.1264   -9987429.74247  -8210653.21345                  22071457.8054
      2613.8044
  23367500.4494   -3430243.03347  -2991447.32643                  23367497.6094
      3508.9114
  20653497.5024  -24382090.49747 -18993101.66346                  20653495.2574
       280.1714
  22540353.6064   -9685330.56948  -8875283.27045                  22540350.7424
       866.1284
  21907197.4804  -15218675.59748 -13182782.13046                  21907196.1524
      -892.0804
  23244531.4754  -12788116.43447  -9950806.40945                  23244529.8084
     -3028.9844
  22123968.4654  -16370980.42848 -12747900.91146                  22123966.3814
      1720.3084
 06  6 27 23  3  0.0000000  0  9G 2G27G29G26G 4G10G24G17G 8
  20780104.5734  -21888139.54848 -17050770.45847                  20780098.8954
      2297.3244
  22635105.7154  -11262952.08748  -8771863.69946                  22635103.2544
      -424.5514
  22056579.8694  -10065630.50647  -8271588.86245                  22056577.1744
      2599.4874
  23347497.3984   -3535357.38346  -3073354.54643                  23347494.9344
      3498.6864
  20651935.1534  -24390301.20047 -18999499.64246                  20651932.7904
       267.0754
  22535410.0484   -9711309.07348  -8895526.27045                  22535407.0224
       865.6204
  21912326.3624  -15191721.58748 -13161779.05346                  21912325.2634
      -904.9074
  23261825.5554  -12697232.29147  -9879987.69845                  23261823.6734
     -3030.0004
  22114180.2904  -16422418.22948 -12787982.33746                  22114178.1544
      1708.8434
 06  6 27 23  3 30.0000000  0  9G 2G27G29G26G 4G10G24G17G 8
  20767017.1664  -21956915.68748 -17104362.26247                  20767011.3834
      2287.8664
  22637569.6244  -11250004.51048  -8761774.67446                  22637567.4834
      -438.4574
  22041778.5204  -10143412.08747  -8332197.86545                  22041776.1154
      2586.1134
  23327553.2244   -3640169.04946  -3155025.88043                  23327551.0594
      3488.9604
  20650446.0284  -24398125.56747 -19005596.55946                  20650443.4304
       254.6534
  22530468.0904   -9737277.02548  -8915761.02045                  22530465.8794
       865.7424
  21917527.5854  -15164391.79448 -13140483.15046                  21917526.8194
      -916.9534
  23279125.5764  -12606327.15147  -9809152.60145                  23279122.2554
     -3030.1374
  22104456.0194  -16473519.05848 -12827801.17146                  22104453.5804
      1698.0134
 06  6 27 23  4  0.0000000  0  9G 2G27G29G26G 4G10G24G17G 8
  20753986.3084  -22025392.29848 -17157720.66347                  20753980.3794
      2277.5204
  22640114.8074  -11236625.31848  -8751349.35446                  22640112.5954
      -453.1594
  22027057.2594  -10220773.47147  -8392479.44145                  22027054.1174
      2571.6704
  23307665.8914   -3744676.40546  -3236460.16643                  23307663.0954
      3478.4574
  20649031.0834  -24405562.55847 -19011391.64846                  20649028.7474
       241.4114
  22525528.3104   -9763235.90947  -8935988.73045                  22525526.0094
       865.1274
  21922799.2644  -15136686.46048 -13118894.62446                  21922798.4094
      -929.7514
  23296426.6584  -12515404.15647  -9738303.60345                  23296424.4314
     -3031.0254
  22094796.3444  -16524280.62048 -12867355.62846                  22094794.1434
      1686.3534
 06  6 27 23  4 30.0000000  0  9G 2G27G29G26G 4G10G24G17G 8
  20741012.6124  -22093571.16648 -17210847.04147                  20741006.5364
      2267.7884
  22642742.6554  -11222818.45648  -8740590.76846                  22642740.2574
      -467.2464
  22012415.3974  -10297718.08047  -8452436.28245                  22012411.9854
      2558.0274
  23287836.0854   -3848881.74846  -3317659.07643                  23287833.9994
      3468.4964
  20647689.0834  -24412615.05347 -19016887.10146                  20647685.9414
       228.7704
  22520589.6564   -9789191.11248  -8956213.56245                  22520586.4574
       865.2694
  21928142.5514  -15108609.41748 -13097016.43946                  21928141.1174
      -941.9584
  23313730.9794  -12424470.25047  -9667446.07945                  23313728.8214
     -3031.1914
  22085201.4394  -16574704.78548 -12906647.18746                  22085198.7644
      1675.2254
 06  6 27 23  5  0.0000000  0  9G 2G27G29G26G 4G10G24G17G 8
  20728096.3684  -22161447.36548 -17263737.59347                  20728090.4304
      2257.6854
  22645451.9634  -11208581.57648  -8729497.10446                  22645449.7244
      -481.4554
  21997852.7934  -10374242.32147  -8512065.55345                  21997850.2304
      2544.0724
  23268064.5104   -3952780.80946  -3398619.44443                  23268062.5524
      3458.4474
  20646420.6034  -24419279.84348 -19022080.45846                  20646418.0684
       215.8984
  22515651.0154   -9815141.52747  -8976434.65745                  22515648.8724
       865.2734
  21933556.3584  -15080158.17748 -13074846.67746                  21933555.7484
      -954.3554
  23331037.2604  -12333526.19047  -9596580.66145                  23331034.8644
     -3031.3914
  22075670.5944  -16624786.44348 -12945671.85546                  22075668.3104
      1663.9504
 06  6 27 23  5 30.0000000  0  9G 2G27G29G26G 4G10G24G17G 8
  20715237.0694  -22229022.84148 -17316393.80847                  20715230.7194
      2247.3054
  22648241.5004  -11193919.25947  -8718071.94046                  22648239.5214
      -495.9424
  21983369.8554  -10450349.87747  -8571370.12545                  21983367.6594
      2529.8494
  23248350.9214   -4056376.35346  -3479343.15143                  23248348.8734
      3448.0374
  20645225.5284  -24425560.45347 -19026974.46346                  20645223.0094
       202.8764
  22510712.3924   -9841092.78847  -8996656.42645                  22510710.4164
       864.9514
  21939041.1994  -15051337.09748 -13052388.73146                  21939040.1334
      -966.9784
  23348344.0544  -12242579.33547  -9525713.06645                  23348341.7324
     -3031.7094
  22066205.5214  -16674527.95248 -12984431.49446                  22066202.5544
      1652.3244
 06  6 27 23  6  0.0000000  0  9G 2G27G29G26G 4G10G24G17G 8
  20702437.5014  -22296282.15048 -17368803.65547                  20702432.5654
      2236.7634
  22651114.7714  -11178819.18047  -8706305.67346                  22651113.0944
      -510.5424
  21968969.2954  -10526026.55347  -8630338.97845                  21968966.2074
      2515.4834
  23228697.5884   -4159653.63746  -3559818.87843                  23228695.8374
      3437.1634
  20644106.2444  -24431442.54747 -19031557.93246                  20644103.3884
       189.4484
  22505776.9264   -9867032.89247  -9016869.49345                  22505774.1834
       864.6634
  21944598.6424  -15022132.76148 -13029632.13546                  21944597.2284
      -979.7754
  23365652.8254  -12151619.47147  -9454835.33845                  23365651.4344
     -3032.0614
  22056807.6244  -16723913.95048 -13022914.09246                  22056805.1794
      1640.3034
 06  6 27 23  6 30.0000000  0  9G 2G27G29G26G 4G10G24G17G 8
  20689697.1674  -22363232.69648 -17420972.91947                  20689691.7674
      2226.6364
  22654070.0744  -11163290.71147  -8694205.60345                  22654068.2374
      -524.7664
  21954648.9474  -10601281.43947  -8688979.12846                  21954645.8444
      2501.5284
  23209104.3724   -4262620.29646  -3640052.72444                  23209101.8674
      3426.9584
  20643061.2694  -24436934.81747 -19035837.61947                  20643059.0094
       176.6024
  22500840.5564   -9892972.85647  -9037082.43345                  22500837.8794
       864.7174
  21950227.1214  -14992554.78548 -13006584.39646                  21950226.0544
      -992.1194
  23382961.8274  -12060659.24046  -9383957.32245                  23382960.5844
     -3031.9774
  22047476.0024  -16772952.22248 -13061125.73646                  22047473.0254
      1628.8724
 06  6 27 23  7  0.0000000  0  9G 2G27G29G26G 4G10G24G17G 8
  20677016.6544  -22429867.48348 -17472896.13447                  20677011.4054
      2215.6154
  22657107.8464  -11147329.64347  -8681768.43346                  22657105.5624
      -539.4824
  21940409.6044  -10676109.19847  -8747286.46545                  21940406.8164
      2486.9384
  23189571.6944   -4365270.62246  -3720039.98943                  23189567.9764
      3416.0554
  20642091.4554  -24442031.95248 -19039809.44047                  20642088.7514
       163.1254
  22495905.0724   -9918909.52647  -9057292.83045                  22495902.5444
       864.3164
  21955927.2874  -14962598.82748 -12983242.13746                  21955926.1784
     -1005.0834
  23400272.1864  -11969697.28847  -9313077.97645                  23400270.6704
     -3032.1484
  22038211.8554  -16821635.99248 -13099061.14446                  22038209.1634
      1616.6064
 06  6 27 23  7 30.0000000  0  9G 2G27G29G26G 4G10G24G17G 8
  20664397.4224  -22496182.15848 -17524569.91547                  20664392.3724
      2205.2344
  22660228.2224  -11130934.14148  -8668992.72146                  22660225.6104
      -553.6234
  21926252.1554  -10750506.92047  -8805258.73445                  21926249.0424
      2472.8764
  23170097.3554   -4467600.68646  -3799777.66643                  23170095.1884
      3405.9424
  20641197.3424  -24446730.94848 -19043471.01747                  20641194.3374
       150.1324
  22490969.9914   -9944841.95948  -9077499.92946                  22490967.4064
       864.5564
  21961700.1304  -14932262.71748 -12959603.64446                  21961699.0064
     -1017.3394
  23417581.2894  -11878734.58447  -9242198.02545                  23417580.0664
     -3031.8604
  22029015.5264  -16869961.22348 -13136717.16846                  22029012.8214
      1605.0294
 06  6 27 23  8  0.0000000  0  9G 2G27G29G26G 4G10G24G17G 8
  20651838.3934  -22562179.65148 -17575996.53547                  20651833.7744
      2194.6834
  22663429.8844  -11114109.65548  -8655882.73146                  22663427.0684
      -567.8524
  21912175.9894  -10824479.28847  -8862899.54045                  21912173.1654
      2458.7504
  23150685.4664   -4569614.04946  -3879268.59243                  23150682.9544
      3395.2784
  20640377.6504  -24451036.11448 -19046825.70347                  20640375.2464
       137.0654
  22486034.8514   -9970776.78448  -9097708.86045                  22486032.8324
       864.6784
  21967544.6994  -14901551.98548 -12935673.22346                  21967542.7834
     -1029.7904
  23434890.4344  -11787779.58047  -9171324.09045                  23434888.8224
     -3031.6164
  22019887.6844  -16917930.63448 -13174095.92746                  22019884.6704
      1593.0764
 06  6 27 23  8 30.0000000  0  9G 2G27G29G26G 4G10G24G17G 8
  20639341.6004  -22627856.39948 -17627173.23147                  20639336.0194
      2184.0384
  22666711.6164  -11096855.56447  -8642437.99246                  22666710.7304
      -582.1194
  21898180.5064  -10898024.17647  -8920207.22245                  21898178.3414
      2444.4874
  23131332.4814   -4671307.91945  -3958510.57343                  23131331.7494
      3384.5664
  20639633.8744  -24454945.41648 -19049871.92647                  20639631.3324
       123.8484
  22481099.5314   -9996713.84948  -9117919.56646                  22481096.7544
       864.7804
  21973460.6064  -14870465.23148 -12911449.82146                  21973458.5044
     -1042.3244
  23452195.4584  -11696833.79647  -9100457.30945                  23452194.7994
     -3031.1824
  22010827.3064  -16965540.84748 -13211194.78446                  22010824.5544
      1581.1674
 06  6 27 23  9  0.0000000  0  9G 2G27G29G26G 4G10G24G17G 8
  20626906.1574  -22693207.14248 -17678095.88847                  20626900.1304
      2173.0324
  22670078.6594  -11079168.87247  -8628656.19345                  22670076.2314
      -596.5584
  21884267.2244  -10971138.16247  -8977179.13745                  21884264.9764
      2430.1464
  23112043.7634   -4772677.72146  -4037500.01844                  23112041.9204
      3373.7894
  20638965.8634  -24458455.17048 -19052606.80946                  20638963.8424
       110.4494
  22476163.3234  -10022651.68648  -9138130.85945                  22476161.0364
       864.7664
  21979447.4994  -14838999.71448 -12886931.26946                  21979446.2994
     -1055.0544
  23469500.7034  -11605897.27147  -9029597.78845                  23469499.4094
     -3030.8644
  22001837.0704  -17012786.65548 -13248009.70546                  22001834.3054
      1568.8924
 06  6 27 23  9 30.0000000  0  9G 2G27G29G26G 4G10G24G17G 8
  20614531.4144  -22758233.93748 -17728766.10547                  20614526.0514
      2162.2224
  22673526.2304  -11061054.59148  -8614541.18446                  22673523.4804
      -610.7814
  21870435.4634  -11043824.91347  -9033818.14745                  21870433.2124
      2415.9284
  23092814.0104   -4873726.56146  -4116239.36744                  23092812.0134
      3363.0174
  20638373.7354  -24461569.03048 -19055033.21546                  20638371.0774
        97.2414
  22471226.6814  -10048596.03147  -9158347.22745                  22471223.5434
       865.0494
  21985506.7514  -14807160.20848 -12862121.29846                  21985504.7514
     -1067.4074
  23486802.9824  -11514977.55147  -8958751.34845                  23486800.7154
     -3030.2494
  21992915.0534  -17059670.50048 -13284542.55346                  21992912.1134
      1556.8604
 06  6 27 23 10  0.0000000  0  9G 2G27G29G26G 4G10G24G17G 8
  20602219.2854  -22822933.61348 -17779181.43547                  20602213.8814
      2151.1044
  22677053.6604  -11042512.48547  -8600092.79946                  22677051.7374
      -625.3274
  21856685.6494  -11116082.70747  -9090122.91246                  21856682.8974
      2401.3334
  23073647.0124   -4974451.83846  -4194726.57044                  23073645.1704
      3351.9484
  20637856.9474  -24464285.11848 -19057149.67046                  20637854.1704
        83.7264
  22466287.8694  -10074547.26847  -9178568.95746                  22466285.4784
       865.0204
  21991636.6764  -14774945.76348 -12837019.15146                  21991634.9324
     -1080.1954
  23504100.8994  -11424076.87746  -8887919.75245                  23504099.7644
     -3029.8104
  21984063.0284  -17106189.61448 -13320791.20746                  21984060.3284
      1544.4484
 06  6 27 23 10 30.0000000  0  9G 2G27G29G26G 4G10G24G17G 8
  20589970.3204  -22887303.29648 -17829339.62547                  20589964.8944
      2140.0104
  22680664.0614  -11023541.66147  -8585310.36646                  22680661.3994
      -639.6584
  21843016.8944  -11187910.47047  -9146092.57646                  21843014.3814
      2386.8754
  23054541.4764   -5074851.04146  -4272959.71043                  23054538.9274
      3340.9574
  20637415.7744  -24466601.94948 -19058955.00847                  20637413.1134
        70.3814
  22461349.0224  -10100505.63747  -9198796.26346                  22461345.6974
       865.2594
  21997838.5684  -14742355.66248 -12811624.31146                  21997836.4104
     -1092.8034
  23521393.8874  -11333197.14147  -8817104.46145                  23521393.2084
     -3029.0874
  21975280.3864  -17152340.99848 -13356753.32146                  21975277.3614
      1532.1054
 06  6 27 23 11  0.0000000  0  9G 2G27G29G26G 4G10G24G17G 8
  20577784.0734  -22951338.02248 -17879236.81647                  20577779.4604
      2128.7264
  22684355.4674  -11004140.33247  -8570192.45146                  22684353.3834
      -653.9264
  21829430.8474  -11259304.80047  -9201724.50646                  21829428.3934
      2372.4074
  23035499.4924   -5174920.24446  -4350935.71044                  23035496.9134
      3330.0394
  20637052.0464  -24468516.03448 -19060446.51847                  20637049.1644
        56.9244
  22456407.1134  -10126469.91147  -9219028.17245                  22456405.2604
       865.4694
  22004112.2204  -14709387.58948 -12785934.94146                  22004110.2594
     -1105.4054
  23538684.0594  -11242339.00347  -8746305.99745                  23538682.9304
     -3028.2184
  21966569.3084  -17198120.22848 -13392425.44746                  21966566.5784
      1519.6244
 06  6 27 23 11 30.0000000  0  9G 2G27G29G26G 4G10G24G17G 8
  20565664.5814  -23015028.75648 -17928865.95747                  20565659.4314
      2117.2904
  22688130.7784  -10984302.09847  -8554734.10145                  22688128.3254
      -668.5844
  21815928.7324  -11330258.60147  -9257013.15146                  21815926.3444
      2357.6954
  23016520.7484   -5274651.12447  -4428648.04844                  23016518.5844
      3318.8094
  20636765.5294  -24470020.25948 -19061618.65346                  20636762.6374
        43.2674
  22451466.3564  -10152434.83547  -9239260.58545                  22451463.4854
       865.4644
  22010459.0744  -14676035.09748 -12759946.03046                  22010456.9784
     -1118.1594
  23555970.0194  -11151498.79547  -8675521.49745                  23555969.2084
     -3027.7254
  21957930.2764  -17243518.05648 -13427800.37346                  21957927.1804
      1506.9144
 06  6 27 23 12  0.0000000  0  9G 2G27G29G26G 4G10G24G17G 8
  20553608.4884  -23078383.20848 -17978233.06347                  20553603.1824
      2106.2504
  22691987.4334  -10964037.64247  -8538943.64445                  22691984.7784
      -682.5934
  21802508.6124  -11400781.32147  -9311965.89446                  21802506.3444
      2343.5894
  22997605.8964   -5374052.40547  -4506103.57544                  22997603.3224
      3307.9494
  20636555.5784  -24471123.88748 -19062478.63447                  20636552.5264
        30.1814
  22446523.2444  -10178411.85948  -9259502.41946                  22446520.9564
       866.1724
  22016877.2764  -14642308.36948 -12733665.49846                  22016874.9454
     -1130.4544
  23573251.0444  -11060689.64447  -8604761.22345                  23573249.0484
     -3026.3574
  21949362.0804  -17288543.05048 -13462884.78246                  21949359.3324
      1494.6444
 06  6 27 23 12 30.0000000  0  9G 2G27G29G26G 4G10G24G17G 8
  20541617.3184  -23141398.04048 -18027335.52347                  20541611.9894
      2094.8834
  22695924.2074  -10943346.09047  -8522820.37545                  22695922.6794
      -696.8314
  21789171.4424  -11470871.24547  -9366581.40246                  21789168.3724
      2329.1704
  22978753.5774   -5473121.15447  -4583299.93244                  22978751.3394
      3296.8024
  20636421.8224  -24471824.76348 -19063024.79046                  20636419.1004
        16.6994
  22441577.8904  -10204400.55647  -9279753.34146                  22441575.2544
       866.6064
  22023366.4334  -14608206.23748 -12707092.42546                  22023364.0464
     -1142.9054
  23590524.7314  -10969913.01047  -8534026.24745                  23590523.4024
     -3025.1954
  21940865.9914  -17333192.01748 -13497676.17046                  21940863.1764
      1482.1094
 06  6 27 23 13  0.0000000  0  9G 2G27G29G26G 4G10G24G17G 8
  20529692.0084  -23204066.67648 -18076168.22047                  20529686.3514
      2082.9984
  22699943.9324  -10922223.74347  -8506361.42545                  22699941.9494
      -711.3874
  21775917.2434  -11540523.82047  -9420856.12846                  21775914.2644
      2314.2734
  22959965.0984   -5571851.97547  -4660233.03644                  22959963.4234
      3285.0984
  20636365.7474  -24472118.11448 -19063253.38147                  20636363.6804
         2.7734
  22436631.3044  -10230398.06247  -9300011.14546                  22436628.4164
       866.5874
  22029927.7994  -14573725.05748 -12680224.00446                  22029925.9224
     -1155.8894
  23607793.8004  -10879167.96347  -8463315.91045                  23607791.4524
     -3024.4384
  21932442.0134  -17377458.30948 -13532169.38546                  21932439.6674
      1469.0044
 06  6 27 23 13 30.0000000  0  9G 2G27G29G26G 4G10G24G17G 8
  20517832.8684  -23266385.58448 -18124728.40747                  20517827.3344
      2071.7244
  22704044.6814  -10900670.03347  -8489566.35845                  22704043.5724
      -725.3764
  21762745.6484  -11609737.14147  -9474788.56646                  21762743.5604
      2300.1024
  22941242.5194   -5670242.04747  -4736900.60744                  22941239.7554
      3274.2924
  20636388.2404  -24472002.15248 -19063163.04746                  20636385.3454
       -10.4304
  22431681.8374  -10256404.37447  -9320275.80845                  22431679.0534
       867.3834
  22036561.8924  -14538863.57548 -12653059.24846                  22036560.3654
     -1168.0964
  23625055.3304  -10788456.15546  -8392631.46645                  23625053.7414
     -3022.8474
  21924092.1834  -17421339.19848 -13566362.28346                  21924089.3664
      1456.5484
 06  6 27 23 14  0.0000000  0  9G 2G27G29G26G 4G10G24G17G 8
  20506040.1524  -23328357.63848 -18173018.32447                  20506035.0684
      2059.9414
  22708228.8454  -10878690.21147  -8472439.25945                  22708226.5734
      -739.7854
  21749657.4684  -11678515.61447  -9528382.17346                  21749655.0824
      2285.4304
  22922583.4304   -5768294.80147  -4813305.32244                  22922580.6544
      3262.8274
  20636487.6004  -24471481.14048 -19062757.09546                  20636484.8464
       -24.1114
  22426730.1094  -10282425.68247  -9340552.15846                  22426727.3874
       867.7054
  22043267.1694  -14503626.99348 -12625602.22446                  22043265.3774
     -1180.7374
  23642310.3554  -10697785.21047  -8321978.87545                  23642307.8484
     -3021.6364
  21915814.7554  -17464837.15548 -13600256.79246                  21915812.3314
      1443.5504
 06  6 27 23 14 30.0000000  0  9G 2G27G29G26G 4G10G24G17G 8
  20494314.0274  -23389980.37948 -18221036.03647                  20494308.2804
      2048.1844
  22712491.6724  -10856284.78547  -8454980.50645                  22712489.6164
      -753.9314
  21736652.2244  -11746858.71047  -9581636.51946                  21736650.0324
      2270.8254
  22903989.6564   -5866008.40247  -4889445.76244                  22903986.4914
      3251.3624
  20636664.5184  -24470554.12548 -19062034.76047                  20636660.8554
       -37.7004
  22421775.7064  -10308462.97648  -9360840.96845                  22421772.9774
       868.1884
  22050043.9194  -14468015.51648 -12597853.05546                  22050042.0744
     -1193.3304
  23659555.8694  -10607158.14946  -8251360.52245                  23659554.0644
     -3020.3124
  21907610.7374  -17507950.19148 -13633851.36346                  21907608.0384
      1430.5764
 06  6 27 23 15  0.0000000  0  9G 2G27G29G26G 4G10G24G17G 8
  20482654.4764  -23451250.09548 -18268778.66147                  20482648.6404
      2036.5284
  22716836.3574  -10833453.06047  -8437189.56645                  22716833.8924
      -768.0524
  21723730.5354  -11814764.62547  -9634550.21046                  21723728.0164
      2256.3044
  22885459.4664   -5963380.43246  -4965320.04544                  22885457.8674
      3240.1024
  20636918.2084  -24469218.79948 -19060994.26847                  20636915.4164
       -51.2404
  22416817.8754  -10334515.96548  -9381141.98846                  22416815.4174
       868.7844
  22056891.9944  -14432028.28048 -12569811.08346                  22056890.3544
     -1205.7474
  23676792.0594  -10516576.60746  -8180777.56545                  23676790.6614
     -3018.4234
  21899480.3154  -17550675.12248 -13667143.52446                  21899477.8914
      1417.7644
 06  6 27 23 15 30.0000000  0  9G 2G27G29G26G 4G10G24G17G 8
  20471062.1524  -23512168.51348 -18316247.55347                  20471056.5324
      2024.5604
  22721261.6264  -10810199.51647  -8419069.94545                  22721259.3704
      -782.4124
  21710891.2364  -11882236.97747  -9687126.05246                  21710888.1694
      2241.6894
  22866995.0124   -6060413.41047  -5040930.12745                  22866992.8244
      3228.5554
  20637249.2004  -24467478.98348 -19059638.58246                  20637246.2904
       -64.9074
  22411856.0794  -10360589.99047  -9401459.40945                  22411852.9854
       869.2684
  22063810.9024  -14395669.28048 -12541479.41746                  22063809.0014
     -1218.3794
  23694019.8634  -10426047.73946  -8110235.66045                  23694018.0224
     -3016.9244
  21891423.3704  -17593013.74248 -13700134.65846                  21891421.6774
      1404.6394
 06  6 27 23 16  0.0000000  0  9G 2G27G29G26G 4G10G24G17G 8
  20459538.6504  -23572723.42348 -18363433.19447                  20459533.3944
      2012.5154
  22725768.8844  -10786514.82547  -8400614.33945                  22725766.4094
      -796.5534
  21698135.8424  -11949265.55347  -9739356.09446                  21698132.7934
      2226.9924
  22848596.9934   -6157095.83647  -5116267.01345                  22848594.1784
      3216.9194
  20637659.2104  -24465323.99148 -19057959.37746                  20637656.4574
       -78.7304
  22406891.6184  -10386676.18247  -9421786.30846                  22406889.2744
       869.7754
  22070802.6494  -14358929.11748 -12512850.75546                  22070801.0584
     -1230.9424
  23711238.2784  -10335563.88647  -8039728.84545                  23711236.6004
     -3015.2104
  21883442.2994  -17634954.60548 -13732815.83446                  21883440.8914
      1391.4504
 06  6 27 23 16 30.0000000  0  9G 2G27G29G26G 4G10G24G17G 8
  20448084.2024  -23632919.13048 -18410338.94447                  20448078.3064
      2000.2444
  22730356.1854  -10762406.22747  -8381828.45545                  22730354.6504
      -810.9084
  21685464.1634  -12015856.20547  -9791244.90246                  21685461.3674
      2212.1834
  22830264.6714   -6253432.75147  -5191334.73545                  22830262.4684
      3205.2934
  20638146.9404  -24462759.64948 -19055961.20746                  20638144.1294
       -92.5104
  22401924.1384  -10412782.08847  -9442128.58345                  22401921.3354
       870.2934
  22077865.0924  -14321814.34848 -12483930.18746                  22077863.4844
     -1243.6134
  23728446.8214  -10245134.59547  -7969264.54145                  23728445.8054
     -3013.5354
  21875535.8404  -17676501.98748 -13765190.42846                  21875534.1884
      1378.1204
 06  6 27 23 17  0.0000000  0  9G 2G27G29G26G 4G10G24G17G 8
  20436699.2564  -23692745.62148 -18456956.98847                  20436693.9284
      1988.1254
  22735025.8564  -10737866.53047  -8362706.62045                  22735024.1954
      -825.0734
  21672877.4534  -12082000.65448  -9842786.02346                  21672873.7774
      2197.4074
  22811999.8624   -6349415.02447  -5266126.09945                  22811997.5834
      3193.5354
  20638714.5044  -24459777.47548 -19053637.43646                  20638712.0774
      -106.3334
  22396953.6894  -10438901.07147  -9462481.04346                  22396951.7404
       870.9234
  22085000.5124  -14284317.74648 -12454712.09346                  22084998.7104
     -1256.1674
  23745644.1884  -10154755.21446  -7898839.12744                  23745643.9744
     -3011.6804
  21867706.4994  -17717645.72548 -13797250.47646                  21867704.9704
      1364.7704
 06  6 27 23 17 30.0000000  0  9G 2G27G29G26G 4G10G24G17G 8
  20425383.5754  -23752209.36848 -18503292.38447                  20425377.9764
      1975.8894
  22739775.7654  -10712905.41747  -8343256.42145                  22739773.8254
      -839.2244
  21660373.9044  -12147707.88548  -9893986.45646                  21660370.5784
      2182.7784
  22793801.2774   -6445050.38247  -5340647.10844                  22793798.6054
      3181.7094
  20639359.9064  -24456386.07748 -19050994.80346                  20639357.0124
      -120.0734
  22391979.2394  -10465043.33147  -9482851.63646                  22391975.9334
       871.6754
  22092206.5834  -14246448.71948 -12425203.80146                  22092204.8824
     -1268.6724
  23762831.3924  -10064437.75146  -7828461.98344                  23762831.2264
     -3009.6634
  21859952.4084  -17758393.87148 -13829002.28846                  21859951.2494
      1351.4404
 06  6 27 23 18  0.0000000  0  9G 2G27G29G26G 4G10G24G17G 8
  20414138.7334  -23811302.53448 -18549339.01647                  20414133.1354
      1963.3354
  22744606.7694  -10687517.51647  -8323473.64046                  22744605.1924
      -853.5794
  21647954.7164  -12212971.74548  -9944841.40946                  21647951.3014
      2167.8474
  22775669.1724   -6540331.55547  -5414892.17144                  22775667.0564
      3169.8934
  20640084.4154  -24452579.09748 -19048028.35147                  20640082.0174
      -134.0434
  22387000.7834  -10491204.05047  -9503236.61146                  22386998.6764
       872.1684
  22099484.9644  -14208201.83148 -12395401.05446                  22099483.4504
     -1281.4504
  23780007.8674   -9974178.80646  -7758130.41345                  23780006.0994
     -3007.9304
  21852275.7994  -17798738.59848 -13860439.72246                  21852274.0504
      1337.8224
 06  6 27 23 18 30.0000000  0  9G 2G27G29G26G 4G10G24G17G 8
  20402964.7404  -23870022.34548 -18595094.71547                  20402958.8274
      1951.2894
  22749519.0104  -10661703.21447  -8303358.60945                  22749517.4194
      -867.4614
  21635619.6884  -12277791.23047  -9995350.10146                  21635616.3784
      2153.3844
  22757605.5334   -6635256.64547  -5488859.74544                  22757604.2224
      3158.4424
  20640888.5574  -24448355.48848 -19044737.23647                  20640885.8164
      -147.5544
  22382018.7614  -10517383.91047  -9523636.51446                  22382016.1394
       873.1404
  22106834.9154  -14169576.99448 -12365303.80946                  22106833.8404
     -1293.6384
  23797172.4704   -9883980.76446  -7687846.31645                  23797170.9584
     -3005.3174
  21844675.1494  -17838677.31048 -13891560.80546                  21844673.8634
      1324.6394
 06  6 27 23 19  0.0000000  0  9G 2G27G29G26G 4G10G24G17G 8
  20391861.9974  -23928367.62248 -18640558.57347                  20391856.2394
      1938.4964
  22754512.1784  -10635464.07147  -8282912.52545                  22754510.3304
      -881.7094
  21623369.0374  -12342166.81647 -10045512.89346                  21623366.8314
      2138.4034
  22739610.2464   -6729825.03647  -5562549.37945                  22739607.8094
      3146.2404
  20641771.4644  -24443715.35348 -19041121.58547                  20641768.8854
      -161.7044
  22377032.9254  -10543584.71347  -9544052.73346                  22377031.0784
       873.6824
  22114256.8214  -14130575.57348 -12334913.14146                  22114255.5974
     -1306.4064
  23814323.8644   -9793847.38846  -7617612.60944                  23814322.5724
     -3003.4574
  21837152.3024  -17878208.80648 -13922364.56446                  21837150.2764
      1310.7864
 06  6 27 23 19 30.0000000  0  9G 2G27G29G26G 4G10G24G17G 8
  20380832.1164  -23986329.15648 -18685723.41747                  20380826.5914
      1925.5274
  22759588.1994  -10608794.22147  -8262130.82745                  22759585.2334
      -896.2994
  21611204.8834  -12406091.58048 -10095324.37746                  21611201.8804
      2123.2724
  22721684.1204   -6824028.85047  -5635954.91945                  22721681.5234
      3133.8964
  20642735.0654  -24438651.29748 -19037175.58647                  20642732.2584
      -175.9234
  22372044.5164  -10569800.98147  -9564480.96545                  22372041.9804
       874.0534
  22121750.6654  -14091191.00248 -12304223.90346                  22121749.8114
     -1319.2774
  23831464.3424   -9703774.82947  -7547426.28245                  23831462.8234
     -3001.4314
  21829709.0164  -17917324.55948 -13952844.37246                  21829707.3554
      1296.8554
 06  6 27 23 20  0.0000000  0  9G 2G27G29G26G 4G10G24G17G 8
  20369875.3344  -24043907.80148 -18730589.90147                  20369869.7184
      1912.8224
  22764744.0414  -10581697.20647  -8241016.28445                  22764741.6484
      -910.4794
  21599125.5584  -12469568.46348 -10144786.87146                  21599122.1274
      2108.3404
  22703826.3514   -6917869.70847  -5709077.63945                  22703824.2934
      3121.9144
  20643779.0174  -24433166.34548 -19032901.61647                  20643775.9604
      -189.9074
  22367051.4534  -10596036.90247  -9584924.54746                  22367049.5514
       874.8734
  22129318.5994  -14051426.99048 -12273239.00346                  22129316.8034
     -1331.8124
  23848590.9854   -9613769.26546  -7477292.19044                  23848590.6534
     -2999.0144
  21822344.3244  -17956025.85648 -13983001.22146                  21822342.2604
      1283.0814
 06  6 27 23 20 29.9990000  0  9G 2G27G29G26G 4G10G24G17G 8
  20358991.8704  -24101100.44848 -18775155.59847                  20358986.5144
      1899.9224
  22769981.3644  -10554175.48347  -8219570.80645                  22769978.9924
      -924.6634
  21587131.9964  -12532595.74847 -10193899.05746                  21587128.6464
      2093.4234
  22686039.0854   -7011344.02746  -5781914.76345                  22686036.7214
      3109.6294
  20644902.8884  -24427260.71548 -19028299.84947                  20644900.2524
      -204.0194
  22362055.8384  -10622293.34047  -9605384.10546                  22362052.7874
       875.4794
  22136957.2774  -14011285.92248 -12241960.28846                  22136955.3924
     -1344.4974
  23865704.9914   -9523836.79347  -7407215.05345                  23865704.3444
     -2996.8414
  21815059.0264  -17994310.43348 -14012833.34946                  21815056.8524
      1269.1554
 06  6 27 23 20 59.9990000  0  9G 2G27G29G26G 4G10G24G17G 8
  20348180.0934  -24157915.10448 -18819426.74747                  20348175.0934
      1887.2174
  22775298.5454  -10526234.65147  -8197798.72945                  22775296.5684
      -938.5604
  21575221.7074  -12595184.15047 -10242669.23646                  21575218.4084
      2078.7304
  22668318.3074   -7104463.15047  -5854475.09344                  22668316.5284
      3097.7784
  20646105.2504  -24420940.32548 -19023374.89447                  20646102.7664
      -217.8564
  22357052.7444  -10648579.61447  -9625866.91746                  22357050.2534
       876.5094
  22144666.4824  -13970771.91848 -12210390.96846                  22144664.9484
     -1356.7924
  23882804.2194   -9433980.89946  -7337197.55545                  23882803.3304
     -2993.9994
  21807851.1434  -18032185.13948 -14042346.09246                  21807848.8814
      1255.4744
 06  6 27 23 21 29.9990000  0  9G 2G27G29G26G 4G10G24G17G 8
  20337442.4814  -24214342.98848 -18863396.53747                  20337437.1094
      1874.4434
  22780695.3424  -10497871.80847  -8175697.83345                  22780693.2114
      -952.3974
  21563396.5364  -12657326.58348 -10291091.90746                  21563393.2694
      2063.9994
  22650668.3314   -7197218.03347  -5926751.60045                  22650665.9624
      3085.8254
  20647387.8894  -24414199.97148 -19018122.69046                  20647385.5944
      -231.6894
  22352046.1474  -10674891.34747  -9646369.56645                  22352043.4734
       877.5154
  22152447.2534  -13929882.38048 -12178529.03446                  22152445.8954
     -1369.2044
  23899888.9564   -9344203.02646  -7267240.85445                  23899887.2954
     -2991.1864
  21800723.7624  -18069643.04548 -14071534.07046                  21800719.6384
      1241.6654
 06  6 27 23 21 59.9990000  0  9G 2G27G29G26G 4G10G24G17G 8
  20326778.8464  -24270380.75048 -18907062.32747                  20326773.3664
      1861.4894
  22786173.4094  -10469086.51347  -8153267.74645                  22786171.1094
      -966.4454
  21551656.2234  -12719021.52047 -10339165.88146                  21551652.8584
      2049.0334
  22633087.0884   -7289606.13647  -5998742.31545                  22633085.0344
      3073.5504
  20648750.9714  -24407037.94548 -19012541.92047                  20648748.3154
      -245.6984
  22347034.5894  -10701228.07347  -9666891.68846                  22347032.2174
       878.3694
  22160300.3764  -13888616.71648 -12146374.02846                  22160299.2224
     -1381.6804
  23916956.8384   -9254504.06646  -7197345.64644                  23916956.2164
     -2988.6724
  21793675.1954  -18106681.05948 -14100394.83946                  21793671.2674
      1227.6464
 06  6 27 23 22 29.9990000  0  9G 2G27G29G26G 4G10G24G17G 8
  20316189.3714  -24326028.08048 -18950423.89347                  20316184.1904
      1848.5504
  22791730.7694  -10439881.49347  -8130510.59745                  22791728.9924
      -980.3474
  21540001.0274  -12780270.70248 -10386892.50546                  21539998.2974
      2034.3804
  22615576.0564   -7381628.25447  -6070447.83545                  22615574.1164
      3061.5244
  20650193.5554  -24399455.78548 -19006633.75747                  20650191.4444
      -259.5514
  22342017.7534  -10727592.49847  -9687435.37845                  22342014.8694
       879.5174
  22168223.8484  -13846977.20348 -12113927.69246                  22168222.3064
     -1393.9604
  23934011.1134   -9164889.11046  -7127515.90444                  23934009.9974
     -2985.4154
  21786707.2394  -18143298.47348 -14128927.88246                  21786703.3034
      1213.7164
 06  6 27 23 22 59.9990000  0  9G 2G27G29G26G 4G10G24G17G 8
  20305675.5504  -24381278.96948 -18993476.55647                  20305670.5544
      1834.7564
  22797368.8424  -10410253.75547  -8107424.07845                  22797367.0344
      -994.9614
  21528431.0574  -12841070.44247 -10434268.92846                  21528427.6694
      2018.8234
  22598135.4654   -7473279.33947  -6141864.24345                  22598133.4344
      3048.5254
  20651716.9974  -24391449.17848 -19000394.88147                  20651714.8514
      -274.3164
  22336996.0684  -10753982.14747  -9707998.74945                  22336993.2774
       879.8004
  22176219.3254  -13804960.91448 -12081187.77646                  22176217.8784
     -1407.1294
  23951049.6224   -9075357.24946  -7057750.93645                  23951047.6954
     -2983.2674
  21779819.8214  -18179490.45648 -14157129.40846                  21779816.6734
      1198.9754
 06  6 27 23 23 29.9990000  0  9G 2G27G29G26G 4G10G24G17G 8
  20295238.1194  -24436127.36448 -19036215.57047                  20295232.7414
      1821.7194
  22803088.0544  -10380200.18247  -8084005.70645                  22803085.9474
     -1008.7214
  21516947.1534  -12901416.54047 -10481291.86545                  21516943.9044
      2004.1704
  22580766.3924   -7564554.25647  -6212987.55045                  22580763.3084
      3036.4214
  20653322.3084  -24383013.88048 -18993821.92747                  20653320.0734
      -288.1644
  22331969.9884  -10780394.24747  -9728579.59545                  22331966.6454
       881.1084
  22184287.3774  -13762564.13948 -12048151.36546                  22184285.9704
     -1419.2974
  23968070.9964   -8985907.27746  -6988049.73445                  23968069.9864
     -2980.0544
  21773015.2614  -18215251.30048 -14184994.99846                  21773012.7214
      1185.0204
 06  6 27 23 23 59.9990000  0  9G 2G27G29G26G 4G10G24G17G 8
  20284875.5924  -24490582.45448 -19078648.11347                  20284870.2004
      1808.7164
  22808885.2594  -10349732.93147  -8060265.00645                  22808883.2264
     -1022.3584
  21505548.2334  -12961320.33547 -10527970.14446                  21505545.1544
      1989.5214
  22563466.6044   -7655462.94247  -6283825.46945                  22563464.5714
      3024.2484
  20655006.9654  -24374161.05948 -18986923.64347                  20655004.3204
      -301.9294
  22326936.8374  -10806841.14348  -9749187.54045                  22326934.4784
       882.2364
  22192425.7434  -13719798.78148 -12014827.76246                  22192423.9274
     -1431.5534
  23985074.5334   -8896553.03346  -6918423.12745                  23985072.7434
     -2976.6754
  21766290.1254  -18250590.83548 -14212532.30646                  21766289.4334
      1171.0304
 06  6 27 23 24 29.9990000  0  9G 2G27G29G26G 4G10G24G17G 8
  20274589.1474  -24544637.80848 -19120769.18047                  20274583.7364
      1794.7714
  22814761.9824  -10318848.90847  -8036199.55145                  22814760.5984
     -1036.7584
  21494233.6584  -13020777.36747 -10574300.28046                  21494230.3064
      1973.9994
  22546238.8444   -7746000.12747  -6354373.90645                  22546236.1434
      3011.3234
  20656771.8724  -24364885.84648 -18979696.21446                  20656769.3224
      -316.5774
  22321898.6124  -10833319.26048  -9769819.81745                  22321895.6234
       882.7984
  22200633.9924  -13676661.14548 -11981214.05046                  22200633.2384
     -1444.4684
  24002059.4054   -8807293.10646  -6848870.02544                  24002058.6084
     -2974.1554
  21759646.7614  -18285502.64648 -14239736.32346                  21759646.9334
      1156.1624
 06  6 27 23 24 59.9990000  0  9G 2G27G29G26G 4G10G24G17G 8
  20264381.0844  -24598280.26148 -19162568.50047                  20264376.2904
      1781.1384
  22820720.8344  -10287537.87547  -8011801.36545                  22820719.1494
     -1050.8014
  21483006.6884  -13079776.27247 -10620273.45046                  21483003.5284
      1958.9704
  22529082.3064   -7836153.21747  -6424623.03545                  22529080.4654
      2998.7304
  20658619.9964  -24355176.71348 -18972130.66946                  20658617.4464
      -330.8894
  22316855.7664  -10859818.39448  -9790468.48845                  22316852.8604
       883.6524
  22208915.9394  -13633140.65548 -11947302.02146                  22208915.0324
     -1457.0804
  24019029.0054   -8718118.98946  -6779383.83044                  24019027.9304
     -2970.9434
  21753087.2024  -18319973.95948 -14266597.10446                  21753087.6714
      1141.7244
 06  6 27 23 25 29.9990000  0  9G 2G27G29G26G 4G10G24G17G 8
  20254251.4024  -24651514.99848 -19204050.13347                  20254246.5444
      1768.1594
  22826758.6614  -10255808.22947  -7987076.97045                  22826757.1624
     -1064.0874
  21471864.4694  -13138325.01847 -10665895.83246                  21471862.0214
      1944.6244
  22511999.3014   -7925928.82047  -6494578.04145                  22511996.5044
      2986.6944
  20660548.2234  -24345041.20248 -18964232.89347                  20660546.0444
      -344.4824
  22311807.2274  -10886347.44447  -9811140.45345                  22311803.9594
       885.3224
  22217268.4784  -13589245.42448 -11913097.99246                  22217267.6564
     -1468.8624
  24035979.6414   -8629041.00347  -6709972.47044                  24035978.8194
     -2967.1394
  21746609.8994  -18354010.74648 -14293119.27646                  21746610.2154
      1127.7494
 06  6 27 23 25 59.9990000  0  9G 2G27G29G26G 4G10G24G17G 8
  20244197.6134  -24704345.62648 -19245216.86447                  20244193.0824
      1754.0724
  22832875.0734  -10223666.33747  -7962031.35945                  22832873.3364
     -1078.4034
  21460808.2224  -13196428.83347 -10711171.52646                  21460805.1824
      1929.2294
  22494985.7064   -8015331.30147  -6564242.28745                  22494984.0824
      2973.6914
  20662557.3054  -24334484.47348 -18956006.88847                  20662554.8154
      -358.9994
  22306752.1914  -10912912.62647  -9831840.57245                  22306749.0944
       885.9964
  22225692.5194  -13544981.73548 -11878606.86046                  22225690.1124
     -1481.7874
  24052912.0884   -8540067.28247  -6640642.35945                  24052910.2374
     -2964.1454
  21740215.2264  -18387617.24548 -14319306.16246                  21740211.9084
      1112.8224
 06  6 27 23 26 29.9990000  0  9G 2G27G29G26G 4G10G24G17G 8
  20234223.6254  -24756761.58348 -19286060.46847                  20234218.5284
      1740.3574
  22839071.1414  -10191105.01347  -7936658.91445                  22839069.9134
     -1092.3784
  21449837.3804  -13254079.42347 -10756094.03746                  21449835.0594
      1914.1064
  22478046.1344   -8104351.22547  -6633608.44745                  22478043.7594
      2960.8794
  20664648.0434  -24323497.53648 -18947445.65247                  20664645.3954
      -373.4134
  22301691.5484  -10939506.48647  -9852563.03345                  22301687.8814
       886.9924
  22234186.6844  -13500342.02948 -11843822.71046                  22234185.6204
     -1494.2584
  24069824.0584   -8451192.55247  -6571389.37044                  24069823.2194
     -2960.9574
  21733904.2234  -18420783.18248 -14345149.72146                  21733899.6184
      1098.1794
 06  6 27 23 26 59.9990000  0  9G 2G27G29G26G 4G10G24G17G 8
  20224327.5124  -24808766.55248 -19326583.84247                  20224322.4124
      1726.5634
  22845345.9974  -10158130.60547  -7910964.59045                  22845344.7364
     -1106.1774
  21438952.3204  -13311282.67547 -10800667.99946                  21438949.8554
      1899.2284
  22461178.4694   -8192992.87947  -6702679.84645                  22461176.3524
      2948.4424
  20666819.7354  -24312086.32748 -18938553.81647                  20666816.9094
      -387.5004
  22296624.0534  -10966135.98947  -9873313.28045                  22296619.8544
       888.1984
  22242751.3174  -13455332.78148 -11808750.60846                  22242750.3454
     -1506.4704
  24086715.3124   -8362425.02046  -6502220.03444                  24086714.9674
     -2957.1734
  21727675.1584  -18453512.88848 -14370653.38546                  21727672.5334
      1083.6524
 06  6 27 23 27 29.9990000  0  9G 2G27G29G26G 4G10G24G17G 8
  20214510.2734  -24860356.39048 -19366783.72347                  20214505.2734
      1712.5884
  22851699.5034  -10124742.23747  -7884947.69745                  22851698.2164
     -1119.9464
  21428152.2574  -13368036.37448 -10844891.65746                  21428149.5544
      1884.1944
  22444382.8554   -8281253.40947  -6771454.27346                  22444380.4344
      2935.5914
  20669072.4564  -24300248.31648 -18929329.41747                  20669069.9704
      -401.8264
  22291550.0714  -10992799.81947  -9894090.29545                  22291546.3354
       889.2484
  22251387.5634  -13409952.27148 -11773389.22446                  22251386.2314
     -1519.0484
  24103586.7744   -8273765.29546  -6433134.68044                  24103586.3244
     -2953.6384
  21721530.5254  -18485802.57448 -14395814.18046                  21721530.2334
      1068.8484
 06  6 27 23 27 59.9990000  0  9G 2G27G29G26G 4G10G24G17G 8
  20204774.7054  -24911518.08748 -19406649.98247                  20204769.4814
      1698.5214
  22858133.7494  -10090930.03747  -7858600.54445                  22858132.3924
     -1133.6724
  21417440.0254  -13424329.72747 -10888756.60746                  21417437.2894
      1869.0724
  22427662.2074   -8369120.74647  -6839922.31345                  22427659.8434
      2922.7104
  20671408.2294  -24287972.20248 -18919763.62747                  20671405.6404
      -416.1234
  22286471.5994  -11019487.94147  -9914886.23445                  22286468.0904
       890.3274
  22260095.3034  -13364190.56048 -11737730.78946                  22260094.6764
     -1531.4354
  24120440.1774   -8185205.31346  -6364127.01644                  24120438.6664
     -2950.0054
  21715472.4174  -18517639.77648 -14420622.39846                  21715471.1824
      1054.0384
 06  6 27 23 28 29.9990000  0  9G 2G27G29G26G 4G10G24G17G 8
  20195117.0914  -24962267.61848 -19446195.08347                  20195112.2734
      1684.8344
  22864645.2044  -10056713.26147  -7831938.16145                  22864643.8964
     -1147.2314
  21406811.4694  -13480180.96747 -10932277.03946                  21406809.0064
      1854.4294
  22411013.3474   -8456611.90847  -6908097.22445                  22411011.3544
      2910.2004
  20673824.4024  -24275276.10648 -18909870.58447                  20673821.8664
      -430.0934
  22281384.9104  -11046219.21447  -9935715.77245                  22281381.4184
       891.8514
  22268872.4534  -13318066.44348 -11701789.95746                  22268871.7234
     -1543.4624
  24137270.5414   -8096765.33347  -6295212.82644                  24137268.2934
     -2945.9084
  21709497.0324  -18549040.81748 -14445090.72746                  21709494.7464
      1039.4874
 06  6 27 23 28 59.9990000  0  9G 2G27G29G26G 4G10G24G17G 8
  20185539.7874  -25012597.38148 -19485413.07647                  20185535.0024
      1670.6934
  22871234.6344  -10022087.23247  -7804956.83645                  22871232.9384
     -1160.8984
  21396268.6004  -13535584.32047 -10975448.48146                  21396265.7474
      1839.4144
  22394437.3884   -8543720.09547  -6975973.69745                  22394435.2154
      2897.2664
  20676321.4434  -24262153.96048 -18899645.55947                  20676318.9754
      -444.4534
  22276290.9584  -11072988.88947  -9956575.24145                  22276287.7174
       892.9304
  22277719.7274  -13271575.12548 -11665563.00046                  22277718.7714
     -1555.7424
  24154077.1884   -8008442.64046  -6226389.97344                  24154075.9434
     -2942.0854
  21703605.9854  -18579998.91548 -14469213.93846                  21703603.2354
      1024.5464
 06  6 27 23 29 29.9990000  0  9G 2G27G29G26G 4G10G24G17G 8
  20176042.2634  -25062505.46948 -19524302.51847                  20176037.7544
      1656.5384
  22877900.9544   -9987053.29647  -7777657.68445                  22877899.4474
     -1174.5514
  21385811.0244  -13590540.49847 -11018271.45946                  21385808.7764
      1824.4394
  22377933.8714   -8630444.49247  -7043551.14945                  22377931.4464
      2884.4734
  20678899.8904  -24248605.88848 -18889088.63247                  20678896.9224
      -458.6624
  22271189.2514  -11099797.92747  -9977465.39545                  22271186.3654
       894.2874
  22286636.8274  -13224717.28348 -11629050.44046                  22286635.7724
     -1568.0374
  24170861.6304   -7920240.03946  -6157660.79944                  24170860.6424
     -2937.9934
  21697798.8824  -18610512.33348 -14492990.62446                  21697797.8284
      1009.7074
 06  6 27 23 29 59.9990000  0  9G 2G27G29G26G 4G10G24G17G 8
  20166627.0504  -25111985.35048 -19562858.28347                  20166621.9784
      1641.8024
  22884646.1254   -9951608.06347  -7750038.04945                  22884644.7474
     -1188.6724
  21375439.2134  -13645044.98447 -11060742.49646                  21375436.9024
      1808.9554
  22361504.9184   -8716779.55347  -7110825.17445                  22361502.4894
      2870.9524
  20681559.4924  -24234627.08948 -18878196.08147                  20681556.9064
      -473.3984
  22266080.2444  -11126642.97447  -9998383.61045                  22266077.7004
       895.0784
  22295623.7334  -13177489.38048 -11592249.52646                  22295622.9184
     -1580.7034
  24187622.7834   -7832155.63746  -6089023.73744                  24187622.8854
     -2934.4924
  21692078.4454  -18640575.45048 -14516416.42546                  21692077.1904
       994.2584
 06  6 27 23 30 29.9990000  0  9G 2G27G29G26G 4G10G24G17G 8
  20157293.7184  -25161032.96748 -19601077.22447                  20157288.3004
      1627.7254
  22891470.2374   -9915750.73947  -7722097.30945                  22891467.9824
     -1201.9584
  21365153.7204  -13699096.04148 -11102860.21346                  21365152.0684
      1794.0974
  22345150.2934   -8802722.49947  -7177793.68545                  22345148.3914
      2858.2714
  20684302.2944  -24220215.78348 -18866966.50247                  20684299.4614
      -487.5444
  22260965.1974  -11153522.86247 -10019328.96445                  22260962.2424
       896.6554
  22304681.8994  -13129890.12548 -11555159.23346                  22304680.9084
     -1592.7884
  24204362.2994   -7744190.44347  -6020479.52244                  24204362.1364
     -2930.0594
  21686444.2224  -18670184.71648 -14539488.59146                  21686441.9134
       979.4484
 06  6 27 23 30 59.9990000  0  9G 2G27G29G26G 4G10G24G17G 8
  20148042.9194  -25209645.06248 -19638956.80647                  20148037.9074
      1613.2324
  22898372.2104   -9879480.71947  -7693834.97345                  22898370.3694
     -1215.8204
  21354954.9284  -13752692.17548 -11144623.43046                  21354952.6204
      1779.0924
  22328871.0574   -8888270.36747  -7244454.34045                  22328868.5604
      2845.1324
  20687127.0644  -24205369.95548 -18855398.34647                  20687124.6934
      -501.8994
  22255843.9774  -11180436.74847 -10040300.82845                  22255841.0774
       897.7934
  22313810.5974  -13081918.63648 -11517778.91046                  22313809.4384
     -1605.1324
  24221079.6244   -7656344.94447  -5952028.54344                  24221078.7054
     -2926.0454
  21680896.7844  -18699337.10948 -14562204.73246                  21680894.5884
       964.2924
 06  6 27 23 31 29.9990000  0  9G 2G27G29G26G 4G10G24G17G 8
  20138875.3324  -25257823.00348 -19676498.07147                  20138870.0534
      1598.6524
  22905351.0034   -9842802.76947  -7665254.77245                  22905349.4384
     -1229.3464
  21344841.3894  -13805837.35647 -11186035.22346                  21344839.0314
      1764.0094
  22312666.3464   -8973426.31947  -7310809.60545                  22312664.0524
      2832.0264
  20690034.2014  -24190093.34548 -18843494.50347                  20690032.0584
      -516.4114
  22250714.7944  -11207389.30248 -10061302.81645                  22250712.6404
       899.0974
  22323009.4434  -13033579.58448 -11480112.16546                  22323008.0524
     -1617.3144
  24237771.9634   -7568625.47747  -5883675.86844                  24237770.9444
     -2921.7724
  21675435.4684  -18728034.96548 -14584566.70046                  21675434.0604
       949.0284
 06  6 27 23 31 59.9990000  0  9G 2G27G29G26G 4G10G24G17G 8
  20129789.8054  -25305568.06348 -19713702.04247                  20129784.4994
      1584.1364
  22912408.0834   -9805721.24747  -7636360.10645                  22912406.0774
     -1242.9004
  21334813.8794  -13858534.91248 -11227098.25546                  21334810.9494
      1749.0434
  22296536.2654   -9058192.01447  -7376860.79745                  22296533.7454
      2818.8724
  20693022.9054  -24174388.73148 -18831257.16147                  20693020.1354
      -530.7964
  22245577.8294  -11234384.44747 -10082338.00345                  22245574.5414
       900.3714
  22332276.5804  -12984876.76948 -11442161.95446                  22332275.4514
     -1629.6684
  24254437.6764   -7481037.97846  -5815425.90644                  24254438.1684
     -2917.5594
  21670060.7874  -18756279.95647 -14606575.77246                  21670058.6014
       933.7844
 06  6 27 23 32 29.9990000  0  9G 2G27G29G26G 4G10G24G17G 8
  20120788.7454  -25352869.07948 -19750559.98347                  20120783.1154
      1569.0674
  22919542.6204   -9768228.64947  -7607145.11745                  22919540.8284
     -1256.6804
  21324872.4754  -13910776.36148 -11267805.87946                  21324870.0674
      1733.6874
  22280482.3274   -9142557.83247  -7442600.40245                  22280479.6114
      2805.3814
  20696094.1024  -24158247.48048 -18818679.57647                  20696091.6594
      -545.4744
  22240434.2424  -11261414.08647 -10103400.07645                  22240431.1054
       901.3924
  22341615.6634  -12935802.11748 -11403922.01846                  22341614.8394
     -1642.1194
  24271082.7064   -7393576.16446  -5747273.95944                  24271081.2644
     -2913.3404
  21664773.9344  -18784061.60748 -14628223.81646                  21664771.9854
       918.2324
 06  6 27 23 32 59.9990000  0  9G 2G27G29G26G 4G10G24G17G 8
  20111872.2334  -25399725.65548 -19787071.59547                  20111866.7854
      1554.5804
  22926754.7274   -9730326.94647  -7577611.35845                  22926753.3894
     -1270.1324
  21315017.9014  -13962562.74748 -11308158.90246                  21315015.9114
      1718.6914
  22264503.8194   -9226524.07447  -7508028.61645                  22264501.3044
      2792.2714
  20699248.2064  -24141670.39748 -18805762.37847                  20699246.2504
      -559.7464
  22235284.7194  -11288480.10448 -10124490.46945                  22235281.4544
       902.9204
  22351024.3934  -12886357.91447 -11365394.11546                  22351023.6434
     -1654.2094
  24287702.3404   -7306243.25747  -5679222.46744                  24287700.4144
     -2908.9314
  21659575.1554  -18811379.59148 -14649510.55046                  21659573.9854
       902.9494
 06  6 27 23 33 29.9990000  0  9G 2G27G29G26G 4G10G24G17G 8
  20103040.6344  -25446136.10348 -19823235.58047                  20103035.1344
      1539.4924
  22934044.7144   -9692018.01047  -7547760.25445                  22934043.2104
     -1283.8824
  21305249.2544  -14013895.18148 -11348158.19046                  21305246.8934
      1703.5064
  22248601.2214   -9310090.03247  -7573144.92445                  22248599.3164
      2778.7504
  20702486.2864  -24124657.80248 -18792505.83746                  20702483.3854
      -574.4874
  22230126.4844  -11315583.65247 -10145610.14045                  22230124.0554
       903.9754
  22360503.0274  -12836545.46947 -11326579.25446                  22360502.2494
     -1666.6654
  24304295.9804   -7219042.65846  -5611274.03644                  24304293.7484
     -2904.7414
  21654465.9904  -18838233.28848 -14670435.50046                  21654463.8644
       887.2804
 06  6 27 23 33 59.9990000  0  9G 2G27G29G26G 4G10G24G17G 8
  20094294.0904  -25492098.99948 -19859050.82547                  20094288.9694
      1524.6144
  22941412.0964   -9653303.77947  -7517593.34445                  22941410.3244
     -1297.0904
  21295567.7264  -14064774.32648 -11387804.27946                  21295565.0084
      1688.3504
  22232775.6494   -9393255.56847  -7637949.21345                  22232773.2434
      2765.4594
  20705806.3074  -24107210.46248 -18778910.52546                  20705804.0174
      -588.8234
  22224961.6944  -11342726.09647 -10166760.10445                  22224958.9174
       905.3714
  22370052.3134  -12786365.99447 -11287478.40946                  22370052.1204
     -1678.7404
  24320863.7314   -7131977.41946  -5543431.08144                  24320862.3844
     -2899.9074
  21649444.0844  -18864621.74747 -14690997.94146                  21649441.8104
       871.7824
 06  6 27 23 34 29.9990000  0  9G 2G27G29G26G 4G10G24G17G 8
  20085633.4624  -25537611.74748 -19894515.31247                  20085627.9494
      1509.5654
  22948855.9184   -9614184.65647  -7487110.93745                  22948854.3314
     -1310.7524
  21285972.2444  -14115199.92548 -11427096.96646                  21285969.5484
      1673.3114
  22217026.3794   -9476019.01047  -7702440.18945                  22217023.6994
      2752.1044
  20709209.3024  -24089327.73448 -18764975.94347                  20709206.8364
      -603.3154
  22219788.9644  -11369907.78748 -10187940.63746                  22219786.4624
       906.7194
  22379670.9224  -12735819.59147 -11248091.64846                  22379670.4234
     -1691.0554
  24337405.0974   -7045049.54946  -5475695.18344                  24337404.6384
     -2895.2344
  21644511.2484  -18890543.19548 -14711196.47146                  21644509.5774
       856.2504
 06  6 27 23 34 59.9990000  0  9G 2G27G29G26G 4G10G24G17G 8
  20077058.3054  -25582673.94448 -19929628.72247                  20077053.3284
      1494.5904
  22956376.9214   -9574663.38847  -7456315.16445                  22956375.1144
     -1324.0674
  21276462.4774  -14165173.91648 -11466037.71846                  21276460.0484
      1658.3114
  22201353.5794   -9558381.17947  -7766618.50345                  22201350.6934
      2738.7314
  20712694.9664  -24071011.10548 -18750703.26647                  20712692.3984
      -617.7394
  22214608.6894  -11397131.05948 -10209153.57445                  22214606.2924
       908.1694
  22389358.9054  -12684909.23047 -11208421.26946                  22389357.9144
     -1703.0574
  24353919.7974   -6958262.99946  -5408069.44543                  24353919.8164
     -2890.3564
  21639667.5804  -18915997.89148 -14731031.29446                  21639665.5754
       840.7424
 06  6 27 23 35 29.9990000  0  9G 2G27G29G26G 4G10G24G17G 8
  20068570.2244  -25627278.92348 -19964385.85947                  20068564.9104
      1479.3414
  22963974.6644   -9534736.33847  -7425203.21345                  22963972.6414
     -1337.5244
  21267039.3214  -14214691.72648 -11504623.02246                  21267037.0084
      1643.2324
  22185757.6014   -9640336.17447  -7830479.52545                  22185755.0914
      2725.2004
  20716264.1074  -24052255.74648 -18736088.72046                  20716261.3674
      -632.3004
  22209420.9164  -11424391.59648 -10230395.57545                  22209418.2044
       909.5024
  22399116.5464  -12633630.72247 -11168464.04246                  22399116.3264
     -1715.2104
  24370407.7684   -6871615.32946  -5340551.90244                  24370408.6044
     -2885.6504
  21634913.8934  -18940979.54548 -14750497.52446                  21634911.6854
       824.9714
 06  6 27 23 35 59.9990000  0  9G 2G27G29G26G 4G10G24G17G 8
  20060167.4774  -25671436.41048 -19998794.28447                  20060162.1484
      1464.3994
  22971647.0864   -9494416.49947  -7393785.18045                  22971645.6564
     -1350.5424
  21257701.0644  -14263765.48248 -11542862.31046                  21257698.2294
      1628.3354
  22170237.9794   -9721894.80047  -7894031.71145                  22170235.1424
      2712.0414
  20719914.1594  -24033073.15748 -18721141.25346                  20719911.5604
      -646.5874
  22204224.1114  -11451701.57748 -10251676.07845                  22204221.0774
       911.1964
  22408942.4064  -12581996.67147 -11128229.73946                  22408941.9854
     -1727.0514
  24386867.4874   -6785120.70246  -5273153.60444                  24386868.0294
     -2880.6304
  21630247.9134  -18965498.07748 -14769602.87546                  21630245.7784
       809.4244
 06  6 27 23 36 29.9990000  0  9G 2G27G29G26G 4G10G24G17G 8
  20051850.7454  -25715139.28048 -20032848.48847                  20051845.2884
      1448.9704
  22979395.3104   -9453699.99147  -7362058.05445                  22979393.8164
     -1364.1604
  21248447.6634  -14312390.16948 -11580751.67546                  21248445.3564
      1613.0624
  22154794.2204   -9803050.99947  -7957270.29645                  22154791.4724
      2698.2424
  20723646.8494  -24013458.30748 -18705856.97246                  20723644.1934
      -661.2454
  22199018.5154  -11479056.49848 -10272991.60046                  22199016.1294
       912.3934
  22418836.6924  -12530002.90247 -11087715.17546                  22418836.0684
     -1739.3754
  24403299.4724   -6698776.35746  -5205872.40143                  24403298.8664
     -2875.9524
  21625671.5594  -18989547.29048 -14788342.51646                  21625669.1794
       793.5944
 06  6 27 23 36 59.9990000  0  9G 2G27G29G26G 4G10G24G17G 8
  20043622.3614  -25758380.51948 -20066542.95447                  20043617.4194
      1433.8674
  22987219.6874   -9412583.13647  -7330018.97445                  22987218.1664
     -1377.0224
  21239280.9294  -14360561.18748 -11618287.53646                  21239278.2644
      1598.3064
  22139427.8964   -9883798.94647  -8020190.76145                  22139425.5444
      2685.0244
  20727462.7934  -23993406.02948 -18690231.83746                  20727460.0864
      -675.5034
  22193805.6864  -11506451.96248 -10294338.71545                  22193803.0114
       914.0874
  22428799.9574  -12477645.01047 -11046916.84946                  22428799.9404
     -1751.1034
  24419702.2734   -6612579.76646  -5138706.38344                  24419701.9074
     -2870.5134
  21621185.5844  -19013120.92148 -14806711.57546                  21621183.3974
       778.0964
 06  6 27 23 37 29.9990000  0  9G 2G27G29G26G 4G10G24G17G 8
  20035479.6134  -25801171.04348 -20099886.23147                  20035474.0034
      1418.5844
  22995117.9784   -9371079.91747  -7297678.81745                  22995115.3644
     -1390.1324
  21230198.7514  -14408291.73648 -11655480.17246                  21230196.2574
      1583.4234
  22124137.8274   -9964150.49347  -8082802.36045                  22124135.1254
      2671.4354
  20731359.2834  -23972929.34348 -18674275.99047                  20731357.0644
      -689.8344
  22188581.6274  -11533901.63548 -10315728.08245                  22188579.3924
       915.6054
  22438830.7664  -12424936.79647 -11005845.56046                  22438829.2394
     -1762.9884
  24436073.0664   -6526545.70346  -5071666.94143                  24436073.3454
     -2865.2104
  21616787.7954  -19036230.43748 -14824718.99746                  21616786.1444
       762.3294
 06  6 27 23 37 59.9990000  0  8G 2G27G29G26G 4G10G24G 8
  20027426.3744  -25843491.88348 -20132863.50547                  20027420.4594
      1402.7154
  23003091.8864   -9329174.38547  -7265025.18045                  23003090.3524
     -1403.6914
  21221202.9654  -14455565.14848 -11692316.58546                  21221199.6314
      1568.0274
  22108926.5634  -10044087.73047  -8145091.10445                  22108923.6564
      2657.5054
  20735340.1184  -23952011.01748 -18657976.01147                  20735337.9834
      -704.6834
  22183351.4634  -11561388.99648 -10337146.79645                  22183348.3534
       916.7724
  22448929.7404  -12371862.40247 -10964488.91946                  22448929.2434
     -1775.4004
  21612482.2364  -19058857.73748 -14842350.67246                  21612480.5744
       746.1184
 06  6 27 23 38 29.9990000  0  8G 2G27G29G26G 4G10G24G 8
  20019461.6504  -25885345.70548 -20165476.87547                  20019456.1284
      1387.3144
  23011141.3554   -9286872.66447  -7232062.81945                  23011140.0784
     -1416.6214
  21212293.2034  -14502386.64948 -11728800.88446                  21212289.9114
      1553.0914
  22093793.0904  -10123614.51548  -8207060.05645                  22093789.7264
      2643.9794
  20739403.6914  -23930655.96948 -18641335.74047                  20739401.1034
      -719.1464
  22178112.2944  -11588919.29348 -10358598.97945                  22178108.7514
       918.3794
  22459098.0744  -12318427.26447 -10922851.19345                  22459097.5394
     -1787.1974
  21608267.5034  -19081006.25748 -14859609.26146                  21608265.4904
       730.2104
 06  6 27 23 38 59.9990000  0  8G 2G27G29G26G 4G10G24G 8
  20011586.6684  -25926729.53448 -20197724.02847                  20011580.9934
      1371.2354
  23019266.8594   -9244174.58747  -7198791.62045                  23019265.3494
     -1430.3224
  21203469.1944  -14548755.26648 -11764932.26146                  21203465.6734
      1537.7294
  22078738.2354  -10202728.79748  -8268707.54845                  22078735.2794
      2629.9224
  20743550.9434  -23908862.87548 -18624354.11747                  20743548.2034
      -734.1064
  22172865.1444  -11616491.93548 -10380084.16945                  22172861.8224
       919.4634
  22469335.2944  -12264631.05847 -10880932.13546                  22469334.7684
     -1799.6144
  21604143.9304  -19102673.08448 -14876492.50646                  21604142.3024
       713.7504
 06  6 27 23 39 29.9990000  0  8G 2G27G29G26G 4G10G24G 8
  20003802.8814  -25967635.11148 -20229598.51447                  20003797.1914
      1355.6104
  23027467.9544   -9201075.15647  -7165207.68245                  23027466.7544
     -1443.2674
  21194732.9664  -14594665.13148 -11800706.18146                  21194730.0654
      1522.7984
  22063762.9264  -10281423.54747  -8330028.13945                  22063760.1274
      2616.2214
  20747782.7354  -23886625.64548 -18607026.42247                  20747779.9644
      -748.5354
  22167611.2424  -11644101.15648 -10401597.82945                  22167607.7464
       920.9814
  22479641.7814  -12210468.47447 -10838727.55646                  22479641.7884
     -1811.4264
  21600114.4114  -19123850.91148 -14892994.72546                  21600112.4154
       697.9004
 06  6 27 23 39 59.9990000  0  8G 2G27G29G26G 4G10G24G 8
  19996108.9984  -26008064.44948 -20261101.89447                  19996103.5694
      1339.7614
  23035744.5684   -9157579.52447  -7131314.99245                  23035743.6244
     -1456.3044
  21186082.8024  -14640120.82648 -11836126.18546                  21186080.0754
      1507.7494
  22048867.2214  -10359701.48048  -8391023.92946                  22048865.2324
      2602.3534
  20752097.8994  -23863947.96748 -18589355.51647                  20752095.4564
      -763.2034
  22162349.8224  -11671751.04348 -10423143.20545                  22162345.5454
       922.4564
  22490017.4584  -12155944.14247 -10796241.10645                  22490016.9194
     -1823.3644
  21596176.5934  -19144542.46548 -14909118.01646                  21596174.5604
       681.6364
 06  6 27 23 40 29.9990000  0  8G 2G27G29G26G 4G10G24G 8
  19988506.3884  -26048017.85248 -20292234.43447                  19988500.4844
      1323.7354
  23044096.8784   -9113691.53947  -7097116.60045                  23044095.1924
     -1469.4684
  21177519.0024  -14685124.33748 -11871193.86946                  21177516.0134
      1492.4714
  22034050.4514  -10437564.12348  -8451696.09046                  22034048.2714
      2588.4184
  20756496.8274  -23840832.19548 -18571343.24247                  20756494.3444
      -777.9254
  22157080.0734  -11699444.45648 -10444722.47745                  22157076.0194
       923.7454
  22500462.2634  -12101061.58447 -10753475.52746                  22500460.9294
     -1835.3274
  21592331.2334  -19164748.77748 -14924863.19646                  21592329.4924
       665.3664
 06  6 27 23 40 59.9990000  0  8G 2G27G29G26G 4G10G24G 8
  19980994.1024  -26087493.28248 -20322994.51047                  19980988.8154
      1308.1794
  23052523.5904   -9069411.93647  -7062613.05145                  23052521.9794
     -1482.1394
  21169040.9844  -14729676.59748 -11905909.90446                  21169038.1394
      1477.8714
  22019312.9194  -10515010.59547  -8512043.99245                  22019310.2924
      2574.8974
  20760978.5624  -23817278.51148 -18552989.73147                  20760975.9564
      -792.1444
  22151801.8914  -11727181.87148 -10466336.04746                  22151798.3064
       925.6254
  22510973.5154  -12045821.61547 -10710431.41445                  22510972.8734
     -1846.9974
  21588578.8384  -19184468.50548 -14940229.22146                  21588576.8364
       649.4784
 06  6 27 23 41 29.9990000  0  8G 2G27G29G26G 4G10G24G 8
  19973572.2704  -26126494.04748 -20353384.70847                  19973568.1704
      1292.0414
  23061021.9934   -9024747.29747  -7027809.47145                  23061021.3354
     -1495.2594
  21160648.1104  -14773783.02348 -11940278.54346                  21160645.2834
      1462.7734
  22004653.8914  -10592045.36347  -8572071.08445                  22004651.0684
      2560.9524
  20765543.4054  -23793292.17148 -18534299.09247                  20765540.9164
      -806.7924
  22146514.2904  -11754969.08548 -10487988.42546                  22146511.1664
       927.0614
  22521552.0684  -11990230.24447 -10667113.49845                  22521551.8904
     -1858.8184
  21584918.2404  -19203705.34848 -14955218.98546                  21584916.7574
       633.1154
 06  6 27 23 41 59.9990000  0  8G 2G27G29G26G 4G10G24G 8
  19966241.7984  -26165016.85148 -20383402.47247                  19966236.0204
      1276.1234
  23069595.5684   -8979697.91847  -6992706.07745                  23069593.5274
     -1507.9594
  21152339.8194  -14817442.95048 -11974299.26046                  21152337.1714
      1447.9694
  21990073.2424  -10668666.17647  -8631775.61145                  21990070.4914
      2547.2174
  20770190.5444  -23768871.68448 -18515270.15947                  20770187.9784
      -821.1774
  22141217.0204  -11782804.81748 -10509678.60546                  22141215.2804
       928.7554
  22532197.8664  -11934286.96047 -10623521.37945                  22532196.6384
     -1870.5524
  21581350.0284  -19222456.96048 -14969830.62846                  21581348.6114
       616.9784
 06  6 27 23 42 29.9990000  0  8G 2G27G29G26G 4G10G24G 8
  19959003.0014  -26203056.62248 -20413043.88547                  19958996.7474
      1259.8294
  23078241.2314   -8934261.48547  -6957301.10145                  23078239.9484
     -1521.1034
  21144117.4004  -14860653.31448 -12007969.68546                  21144114.0064
      1432.8084
  21975572.0904  -10744868.92247  -8691154.38045                  21975569.7084
      2533.1104
  20774920.7334  -23744013.93848 -18495900.51347                  20774918.0834
      -835.8694
  22135911.0424  -11810686.46348 -10531404.58146                  22135909.9074
       930.1074
  22542910.8294  -11877989.82047 -10579653.52545                  22542910.7704
     -1882.6174
  21577874.9004  -19240719.20448 -14984060.95846                  21577873.1074
       600.4884
 06  6 27 23 42 59.9990000  0  8G 2G27G29G26G 4G10G24G 8
  19951857.0464  -26240610.17848 -20442306.41347                  19951852.6594
      1243.7554
  23086961.1394   -8888438.16447  -6921594.64745                  23086960.1534
     -1533.7604
  21135980.1514  -14903413.41148 -12041289.23546                  21135977.3824
      1417.9594
  21961150.8754  -10820651.60447  -8750205.79846                  21961148.8934
      2519.0974
  20779734.4644  -23718717.82448 -18476189.26947                  20779732.3544
      -850.4544
  22130597.2374  -11838612.95048 -10553165.48546                  22130596.0154
       931.6994
  22553691.7454  -11821338.32247 -10535509.53245                  22553690.6704
     -1894.2244
  21574493.5814  -19258489.45348 -14997907.91146                  21574491.5124
       584.1554
 06  6 27 23 43 29.9990000  0  8G 2G27G29G26G 4G10G24G 8
  19944803.9564  -26277672.66748 -20471186.25847                  19944799.3954
      1227.2364
  23095755.3294   -8842226.09047  -6885585.28345                  23095753.7834
     -1546.8904
  21127928.9764  -14945720.58748 -12074255.86346                  21127926.1094
      1402.6714
  21946810.6524  -10896010.37247  -8808926.89946                  21946808.4854
      2504.8494
  20784632.2024  -23692980.28748 -18456134.06547                  20784629.9074
      -865.2984
  22125275.1054  -11866581.61248 -10574959.27546                  22125274.4254
       933.0224
  22564539.6924  -11764330.51447 -10491087.90245                  22564539.0274
     -1906.0994
  21571206.0554  -19275763.19748 -15011367.96546                  21571204.5284
       567.5544
 06  6 27 23 43 59.9990000  0  8G 2G27G29G26G 4G10G24G 8
  19937844.5054  -26314245.49748 -20499684.55547                  19937839.7174
      1210.7814
  23104622.3884   -8795629.62847  -6849276.36445                  23104619.7594
     -1559.7954
  21119963.7184  -14987578.71948 -12106872.58246                  21119960.5044
      1387.6564
  21932550.9534  -10970947.61847  -8867319.53246                  21932548.7024
      2490.7324
  20789612.9574  -23666804.85648 -18435737.64347                  20789611.1964
      -879.9564
  22119944.1354  -11894596.10348 -10596788.77846                  22119944.3034
       934.4094
  22575455.0424  -11706970.52647 -10446391.83845                  22575454.5084
     -1917.9694
  21568013.1154  -19292542.38148 -15024442.66246                  21568011.6684
       550.9474
 06  6 27 23 44 29.9990000  0  8G 2G27G29G26G 4G10G24G 8
  19930978.8484  -26350325.98448 -20527799.23347                  19930973.5104
      1194.5804
  23113562.3684   -8748649.77847  -6812668.70944                  23113560.1944
     -1572.2754
  21112084.0164  -15028987.60948 -12139139.25546                  21112080.5224
      1372.8864
  21918370.9784  -11045461.90147  -8925382.60646                  21918368.8744
      2476.8264
  20794677.8294  -23640190.73748 -18414999.39347                  20794675.5624
      -894.3414
  22114604.4644  -11922656.11548 -10618653.75745                  22114602.8934
       936.1914
  22586437.0034  -11649258.48447 -10401421.47345                  22586436.3464
     -1929.4974
  21564914.6694  -19308825.27648 -15037130.63646                  21564912.6394
       534.5854
 06  6 27 23 44 59.9990000  0  8G 2G27G29G26G 4G10G24G 8
  19924206.4094  -26385914.46648 -20555530.52147                  19924200.7304
      1177.8914
  23122574.7534   -8701289.78147  -6775764.81345                  23122572.1544
     -1585.0734
  21104289.1844  -15069949.91348 -12171057.92946                  21104286.0274
      1357.8714
  21904271.8254  -11119554.55947  -8983117.13246                  21904269.5994
      2462.5984
  20799825.3534  -23613140.38748 -18393921.22247                  20799822.7774
      -909.0874
  22109255.7084  -11950764.04348 -10640556.01745                  22109250.2374
       937.5444
  22597486.0804  -11591197.66147 -10356179.32045                  22597484.9984
     -1941.2744
  21561910.7374  -19324613.54748 -15049433.18846                  21561908.3074
       517.9254
 06  6 27 23 45 29.9990000  0  8G 2G27G29G26G 4G10G24G 8
  19917528.1884  -26421010.80648 -20582878.32647                  19917522.8154
      1161.4704
  23131658.1554   -8653552.84547  -6738567.22745                  23131656.4474
     -1597.7254
  21096579.2944  -15110467.77048 -12202630.27046                  21096575.4524
      1342.8864
  21890252.5384  -11193226.65847  -9040523.96246                  21890250.4864
      2448.4724
  20805055.5694  -23585655.49948 -18372504.43547                  20805052.8504
      -923.6334
  22103897.1394  -11978921.81847 -10662497.13745                  22103891.5184
       939.2484
  22608600.1074  -11532790.70947 -10310667.44245                  22608599.4784
     -1952.8614
  21559000.3464  -19339907.31348 -15061350.41146                  21558997.8514
       501.3044
 06  6 27 23 45 59.9990000  0  8G 2G27G29G26G 4G10G24G 8
  19910943.7054  -26455611.79048 -20609840.14447                  19910937.7234
      1144.9374
  23140814.9324   -8605438.79247  -6701075.75844                  23140812.5794
     -1610.2734
  21088953.2694  -15150540.42047 -12233855.72146                  21088950.4954
      1328.1884
  21876313.4054  -11266475.92747  -9097601.30146                  21876311.5334
      2434.4484
  20810368.4564  -23557734.92048 -18350748.15447                  20810366.2434
      -938.1014
  22098530.0894  -12007128.28847 -10684476.20145                  22098527.7934
       940.8304
  22619781.0374  -11474037.35447 -10264885.64146                  22619780.2384
     -1964.4044
  21556184.5444  -19354704.01348 -15072880.30446                  21556182.2934
       484.6534
 06  6 27 23 46 29.9990000  0  8G 2G27G29G26G 4G10G24G 8
  19904455.7804  -26489705.81348 -20636406.92847                  19904450.2024
      1128.1494
  23150043.4034   -8556939.44647  -6663284.11845                  23150042.2214
     -1622.8424
  21081414.0394  -15190158.74148 -12264727.11546                  21081411.3344
      1313.1794
  21862457.1284  -11339291.98447  -9154341.06646                  21862454.8624
      2420.1514
  20815766.4474  -23529369.08848 -18328644.92247                  20815763.8614
      -952.7054
  22093155.1274  -12035373.97148 -10706485.84546                  22093154.4234
       942.4024
  22631028.9884  -11414928.78647 -10218827.05645                  22631027.9684
     -1976.0504
  21553465.2284  -19368992.73948 -15084014.36446                  21553463.5394
       467.9744
 06  6 27 23 46 59.9990000  0  8G 2G27G29G26G 4G10G24G 8
  19898063.0874  -26523300.59548 -20662584.68247                  19898057.7414
      1111.4314
  23159344.0254   -8508065.15447  -6625200.28945                  23159342.6964
     -1635.4934
  21073959.3864  -15229332.43147 -12295252.06546                  21073957.0604
      1298.3454
  21848681.8024  -11411683.24147  -9210749.84446                  21848679.3884
      2405.9084
  20821247.6014  -23500567.39848 -18306202.06847                  20821244.9924
      -967.3544
  22087770.7284  -12063668.15947 -10728533.28646                  22087768.8464
       943.8674
  22642342.4324  -11355475.07047 -10172499.52545                  22642341.7984
     -1987.6224
  21550841.7044  -19382781.87248 -15094759.14346                  21550838.9324
       451.2264
 06  6 27 23 47 29.9990000  0  8G 2G27G29G26G 4G10G24G 8
  19891765.9504  -26556390.85848 -20688369.32847                  19891761.0824
      1094.5314
  23168715.9384   -8458814.44247  -6586823.16745                  23168715.6284
     -1648.0524
  21066589.8964  -15268059.05048 -12325428.64946                  21066587.5144
      1283.4964
  21834987.1894  -11483645.92147  -9266824.65646                  21834985.6524
      2391.5234
  20826811.3984  -23471326.99548 -18283417.34947                  20826808.8524
      -982.0124
  22082378.0784  -12092008.08547 -10750616.33846                  22082375.4664
       945.3274
  22653722.0054  -11295674.30447 -10125901.57045                  22653721.5324
     -1999.2144
  21548313.3174  -19396067.48148 -15105111.56946                  21548310.9554
       434.3514
 06  6 27 23 47 59.9990000  0  8G 2G27G29G26G 4G10G24G 8
  19885564.4024  -26588981.34548 -20713764.51547                  19885559.1734
      1077.9054
  23178158.8684   -8409194.48747  -6548158.33045                  23178157.2754
     -1660.3274
  21059304.7104  -15306345.44748 -12355262.20146                  21059301.3034
      1268.8384
  21821373.7904  -11555186.02647  -9322570.16846                  21821371.7974
      2377.4764
  20832458.0084  -23441654.43648 -18260295.89547                  20832455.8224
      -996.3874
  22076974.6514  -12120400.27947 -10772740.15046                  22076972.7554
       947.2224
  22665166.7024  -11235534.18147 -10079039.18645                  22665165.1804
     -2010.3714
  21545880.2484  -19408854.43048 -15115075.42646                  21545877.9834
       417.7784
 06  6 27 23 48 29.9990000  0  8G 2G27G29G26G 4G10G24G 8
  19879459.2684  -26621064.50948 -20738764.39947                  19879453.9694
      1060.9914
  23187672.3154   -8359201.05146  -6509202.45345                  23187672.0204
     -1672.5784
  21052103.3834  -15344186.56448 -12384748.78046                  21052100.7294
      1254.0334
  21807841.3734  -11626296.69947  -9377981.07446                  21807840.1434
      2363.2624
  20838187.6244  -23411544.05948 -18236833.29047                  20838185.3164
     -1010.9524
  22071562.7444  -12148839.19747 -10794900.35346                  22071560.7314
       948.7744
  22676676.2104  -11175049.73347 -10031908.50145                  22676675.8794
     -2021.7924
  21543543.0574  -19421136.21548 -15124645.64646                  21543540.4644
       401.0214
 06  6 27 23 48 59.9990000  0  8G 2G27G29G26G 4G10G24G 8
  19873449.7694  -26652643.41348 -20763371.34147                  19873444.2414
      1044.0924
  23197254.6754   -8308840.80346  -6469960.71344                  23197251.6204
     -1684.9174
  21044986.0354  -15381587.81347 -12413892.62146                  21044982.9214
      1239.2434
  21794390.8524  -11696982.21447  -9433060.67646                  21794388.3684
      2348.9314
  20843999.6434  -23381000.89448 -18213033.45647                  20843997.1544
     -1025.3914
  22066141.5184  -12177329.78647 -10817100.82446                  22066138.6824
       950.4104
  22688250.5974  -11114226.92247  -9984514.17545                  22688250.0624
     -2033.2284
  21541301.2764  -19432916.36148 -15133824.97246                  21541298.9364
       384.1554
 06  6 27 23 49 29.9990000  0  8G 2G27G29G26G 4G10G24G 8
  19867536.4864  -26683719.76548 -20787586.69547                  19867530.8844
      1027.6904
  23206907.9284   -8258118.51947  -6430436.85145                  23206906.6964
     -1696.4944
  21037951.7344  -15418553.32848 -12442696.89646                  21037948.5544
      1225.1324
  21781020.2574  -11767245.41047  -9487811.19846                  21781018.0694
      2335.2204
  20849893.6564  -23350028.81848 -18188899.38347                  20849891.4034
     -1039.3074
  22060709.3044  -12205875.64147 -10839344.35246                  22060707.3004
       952.5634
  22699888.9214  -11053069.98647  -9936859.45045                  22699887.9964
     -2043.8624
  21539154.1804  -19444197.58448 -15142615.53746                  21539152.5784
       367.9494
 06  6 27 23 49 59.9990000  0  8G 2G27G29G26G 4G10G24G 8
  19861719.1394  -26714289.41748 -20811407.20747                  19861714.1674
      1010.2154
  23216628.4154   -8207032.88147  -6390629.91045                  23216627.1054
     -1709.2144
  21031001.0884  -15455081.24247 -12471160.21446                  21030997.8504
      1210.0784
  21767731.1694  -11837083.18547  -9542230.22746                  21767728.5434
      2320.5964
  20855869.4744  -23318625.67948 -18164429.43747                  20855867.5614
     -1054.2294
  22055267.4174  -12234474.39347 -10861629.10246                  22055264.9974
       953.9844
  22711589.9454  -10991577.89347  -9888943.58145                  22711589.7324
     -2055.4354
  21537103.3724  -19454976.64348 -15151014.79046                  21537101.2454
       350.6984
 06  6 27 23 50 29.9990000  0  8G 2G27G29G26G 4G10G24G 8
  19855999.7984  -26744344.56148 -20834826.81547                  19855994.3974
       993.4334
  23226419.7424   -8155579.29247  -6350536.27945                  23226419.3304
     -1721.1184
  21024133.9594  -15491166.35948 -12499278.48846                  21024131.5364
      1195.6454
  21754523.6444  -11906488.82347  -9596312.53646                  21754521.0144
      2306.4794
  20861928.3144  -23286785.47648 -18139618.91247                  20861926.4404
     -1068.4184
  22049816.2394  -12263120.14247 -10883950.47146                  22049813.9194
       955.8404
  22723356.8034  -10929745.49847  -9840762.55945                  22723355.6514
     -2066.6414
  21535148.9854  -19465246.23647 -15159017.06646                  21535146.8714
       333.9844
 06  6 27 23 50 59.9990000  0  8G 2G27G29G26G 4G10G24G 8
  19850377.1714  -26773891.33548 -20857850.28747                  19850371.9584
       976.4364
  23236279.9344   -8103766.96347  -6310163.10245                  23236278.2044
     -1732.9494
  21017350.1704  -15526816.88148 -12527058.11846                  21017347.4894
      1181.0554
  21741396.8534  -11975469.45347  -9650063.65246                  21741394.5964
      2292.2664
  20868068.9584  -23254516.29448 -18114474.12447                  20868067.2624
     -1082.8224
  22044354.6164  -12291820.81947 -10906314.64146                  22044352.5004
       957.5934
  22735186.0884  -10867581.98647  -9792323.50145                  22735185.1894
     -2077.5984
  21533290.1134  -19475013.46547 -15166627.89146                  21533288.3124
       317.2074
 06  6 27 23 51 29.9990000  0  8G 2G27G29G26G 4G10G24G 8
  19844853.4554  -26802920.16648 -20880470.16447                  19844847.8444
       958.9704
  23246209.3744   -8051589.08747  -6269505.03845                  23246207.0434
     -1745.2494
  21010649.6584  -15562025.75348 -12554493.60246                  21010647.1954
      1166.2504
  21728352.5214  -12044016.64447  -9703477.04846                  21728350.6604
      2277.6124
  20874293.0244  -23221810.62448 -18088989.20847                  20874290.5154
     -1097.5644
  22038883.9864  -12320568.50947 -10928715.45546                  22038881.2254
       959.0674
  22747079.4794  -10805079.89747  -9743620.62145                  22747078.9624
     -2089.1704
  21531528.8524  -19484269.54148 -15173840.42446                  21531526.8954
       299.9664
 06  6 27 23 51 59.9990000  0  8G 2G27G29G26G 4G10G24G 8
  19839427.8434  -26831429.95048 -20902685.58847                  19839422.5474
       941.9094
  23256207.1134   -7999048.34647  -6228564.24245                  23256205.5754
     -1757.1634
  21004033.7554  -15596794.32748 -12581585.98546                  21004030.7874
      1151.8414
  21715391.1144  -12112130.52947  -9756552.78846                  21715389.3374
      2263.4724
  20880599.4404  -23188669.52148 -18063165.00447                  20880597.1144
     -1111.6024
  22033404.6334  -12349363.81047 -10951153.35046                  22033402.3974
       960.8594
  22759037.1884  -10742241.73247  -9694655.87245                  22759036.8334
     -2099.9324
  21529865.0424  -19493013.91648 -15180654.20446                  21529863.1444
       283.1884
 06  6 27 23 52 29.9990000  0  8G 2G27G29G26G 4G10G24G 8
  19834102.1144  -26859418.43748 -20924494.81447                  19834096.4604
       924.1754
  23266274.1644   -7946144.93146  -6187340.86145                  23266273.0864
     -1769.5024
  20997501.2084  -15631122.45547 -12608335.17746                  20997498.7934
      1136.9094
  21702511.9074  -12179809.60147  -9809289.71446                  21702509.6264
      2248.6964
  20886988.8814  -23155092.21047 -18037000.89147                  20886987.2514
     -1126.5334
  22027916.1714  -12378206.09047 -10973627.85946                  22027913.9614
       962.2024
  22771059.1064  -10679067.53647  -9645429.28545                  22771058.9444
     -2111.4704
  21528298.7074  -19501244.73747 -15187067.83246                  21528296.5774
       265.7184
 06  6 27 23 52 59.9990000  0  8G 2G27G29G26G 4G10G24G 8
  19828875.5994  -26886884.33048 -20945896.82247                  19828869.8874
       906.9144
  23276410.6724   -7892880.96647  -6145836.53145                  23276408.6994
     -1781.3924
  20991052.0194  -15665011.51548 -12634742.22546                  20991049.3334
      1122.4664
  21689716.2244  -12247053.98047  -9861687.92746                  21689713.6104
      2234.3704
  20893461.2154  -23121079.80148 -18010497.73447                  20893458.9974
     -1140.9474
  22022418.6554  -12407095.77747 -10996139.29946                  22022416.2164
       963.8924
  22783144.6064  -10615558.97346  -9595942.15445                  22783144.2224
     -2122.3244
  21526830.4484  -19508962.04147 -15193081.30346                  21526828.0424
       248.7554
 06  6 27 23 53 29.9990000  0  8G 2G27G29G26G 4G10G24G 8
  19823747.2204  -26913834.52548 -20966896.99047                  19823741.4694
       889.8584
  23286612.8634   -7839266.54547  -6104059.10945                  23286611.3474
     -1792.8324
  20984684.9914  -15698470.87448 -12660814.45246                  20984682.6384
      1108.2764
  21677000.6654  -12313871.72748  -9913753.68746                  21676998.0174
      2220.2934
  20900014.4794  -23086641.27948 -17983662.54547                  20900012.9634
     -1154.8974
  22016910.6464  -12436041.66947 -11018694.55046                  22016908.0654
       965.9424
  22795291.5834  -10551725.86747  -9546202.13745                  22795291.3114
     -2133.0714
  21525458.0384  -19516173.54448 -15198700.65346                  21525455.5674
       232.1144
 06  6 27 23 53 59.9990000  0  8G 2G27G29G26G 4G10G24G 8
  19818718.3124  -26940260.44448 -20987488.62647                  19818712.9314
       871.7634
  23296882.7394   -7785296.00047  -6062004.18145                  23296881.6124
     -1805.2934
  20978401.3624  -15731494.07848 -12686546.81246                  20978397.9584
      1093.1694
  21664368.6364  -12380254.89147  -9965480.82346                  21664366.1794
      2205.1854
  20906650.7834  -23051769.64247 -17956489.86047                  20906648.9664
     -1169.9664
  22011392.5824  -12465036.54448 -11041287.96446                  22011390.6674
       966.9344
  22807501.1384  -10487561.99047  -9496204.37045                  22807501.0574
     -2144.6874
  21524183.3224  -19522871.55448 -15203919.88746                  21524180.9194
       214.3754
 06  6 27 23 54 29.9990000  0  8G 2G27G29G26G 4G10G24G 8
  19813790.2584  -26966158.47148 -21007668.92447                  19813784.4234
       854.2334
  23307220.9064   -7730968.76147  -6019671.31945                  23307219.5764
     -1817.0854
  20972199.9674  -15764079.81948 -12711938.31346                  20972197.2364
      1078.6774
  21651819.3714  -12446201.34248 -10016867.65346                  21651816.4184
      2190.8114
  20913368.9774  -23016463.50447 -17928978.60947                  20913367.2934
     -1184.3754
  22005866.2964  -12494078.38448 -11063917.97446                  22005864.3504
       968.6824
  22819774.1364  -10423066.52246  -9445948.20145                  22819774.5414
     -2155.6794
  21523007.1674  -19529052.91248 -15208736.52046                  21523004.9054
       197.1294
 06  6 27 23 54 59.9990000  0  8G 2G27G29G26G 4G10G24G 8
  19808961.5784  -26991533.94848 -21027442.03047                  19808955.7224
       837.1004
  23317625.8234   -7676293.08147  -5977066.94745                  23317625.4384
     -1828.2814
  20966081.5494  -15796235.95248 -12736995.03146                  20966077.9944
      1064.7514
  21639351.6704  -12511717.21648 -10067918.97746                  21639349.2904
      2176.5824
  20920169.0364  -22980730.04747 -17901134.38147                  20920166.9844
     -1198.3254
  22000329.4684  -12523173.86047 -11086589.78046                  22000327.4534
       970.8014
  22832108.3164  -10358247.59446  -9395439.98945                  22832109.2544
     -2165.9674
  21521928.1784  -19534723.79048 -15213155.38146                  21521926.3244
       180.5274
 06  6 27 23 55 29.9990000  0  8G 2G27G29G26G 4G10G24G 8
  19804233.0134  -27016380.50048 -21046802.99547                  19804227.7874
       819.3364
  23328095.8614   -7621265.84347  -5934188.63745                  23328095.7044
     -1840.0054
  20960044.5574  -15827958.39448 -12761713.81946                  20960041.5744
      1050.0934
  21626968.0744  -12576797.17248 -10118630.62546                  21626965.1924
      2162.0414
  20927050.7004  -22944564.86847 -17872953.74646                  20927049.0704
     -1212.7984
  21994783.2734  -12552318.27048 -11109299.71246                  21994781.6764
       972.2804
  22844506.2464  -10293101.65546  -9344676.99145                  22844505.8934
     -2177.0364
  21520946.8934  -19539878.64948 -15217172.15946                  21520944.9504
       163.1494
 06  6 27 23 55 59.9990000  0  8G 2G27G29G26G 4G10G24G 8
  19799605.7744  -27040697.39948 -21065751.23947                  19799600.4794
       801.9194
  23338634.6954   -7565889.09447  -5891037.97345                  23338633.8644
     -1851.5584
  20954090.1084  -15859248.90047 -12786096.02746                  20954087.1514
      1036.0354
  21614666.4424  -12641441.61648 -10169002.92346                  21614663.3714
      2147.7834
  20934014.8414  -22907969.14148 -17844437.62046                  20934013.5404
     -1226.8704
  21989228.1044  -12581512.31347 -11132048.32446                  21989225.9594
       974.1414
  22856964.8764  -10227630.62047  -9293660.65345                  22856964.9484
     -2187.6374
  21520064.8914  -19544517.58348 -15220786.90146                  21520062.1784
       146.2504
 06  6 27 23 56 29.9990000  0  8G 2G27G29G26G 4G10G24G 8
  19795078.8754  -27064486.25048 -21084288.01347                  19795073.4474
       784.0334
  23349238.1994   -7510167.57847  -5847618.68045                  23349236.9174
     -1863.3204
  20948217.3344  -15890111.30348 -12810144.65946                  20948214.6584
      1021.5234
  21602446.7754  -12705653.48948 -10219038.12746                  21602444.4194
      2133.1694
  20941059.8174  -22870946.47047 -17815588.82146                  20941058.0264
     -1241.3044
  21983662.5704  -12610759.34047 -11154838.21446                  21983659.8664
       975.6544
  22869484.6694  -10161838.92846  -9242394.46945                  22869484.4964
     -2198.4574
  21519279.7914  -19548642.86448 -15224001.40746                  21519277.0544
       128.7744
 06  6 27 23 56 59.9990000  0  8G 2G27G29G26G 4G10G24G 8
  19790654.0804  -27087739.07448 -21102407.10547                  19790648.8224
       766.1474
  23359908.0854   -7454096.69047  -5803927.13545                  23359907.0964
     -1874.8144
  20942426.7604  -15920540.27448 -12833855.53646                  20942423.7604
      1007.1144
  21590311.7514  -12769425.78047 -10268730.82446                  21590308.6854
      2118.4334
  20948187.5924  -22833491.02647 -17786402.76347                  20948185.7704
     -1255.7134
  21978088.3124  -12640052.64848 -11177664.16846                  21978086.5764
       977.2664
  22882066.3214  -10095721.45847  -9190874.39945                  22882065.9514
     -2209.3314
  21518593.1964  -19552247.45948 -15226810.16646                  21518591.0344
       111.4794
 06  6 27 23 57 29.9990000  0  8G 2G27G29G26G 4G10G24G 8
  19786329.9424  -27110463.50948 -21120114.46347                  19786324.8774
       748.4624
  23370642.6894   -7397686.33947  -5759971.09945                  23370641.8464
     -1886.1914
  20936716.8174  -15950545.39348 -12857236.15246                  20936714.5464
       992.8374
  21578258.4434  -12832766.94648 -10318087.56646                  21578255.6684
      2103.9364
  20955395.5054  -22795611.89848 -17756886.58446                  20955394.3224
     -1269.9904
  21972503.9074  -12669400.66948 -11200532.75146                  21972501.6874
       978.9554
  22894708.7594  -10029288.02347  -9139108.13645                  22894708.3334
     -2219.9804
  21518004.9254  -19555339.53048 -15229219.58046                  21518002.7934
        94.2684
 06  6 27 23 57 59.9990000  0  8G 2G27G29G26G 4G10G24G 8
  19782108.7294  -27132645.40748 -21137399.06947                  19782104.0424
       730.4594
  23381443.7204   -7340926.00447  -5715742.32145                  23381443.4614
     -1897.6864
  20931089.7324  -15980115.17148 -12880277.52846                  20931087.6464
       978.4864
  21566289.3314  -12895664.06148 -10367098.30146                  21566286.4174
      2089.2824
  20962686.7904  -22757297.33748 -17727031.11947                  20962685.0204
     -1284.2924
  21966910.8424  -12698791.14148 -11223434.42346                  21966908.4364
       980.4984
  22907412.4574   -9962527.63347  -9087087.11745                  22907412.0834
     -2230.7574
  21517515.6744  -19557906.13648 -15231219.53046                  21517514.4454
        76.8804
 06  6 27 23 58 29.9990000  0  8G 2G27G29G26G 4G10G24G 8
  19777988.1634  -27154297.77148 -21154271.05247                  19777983.3144
       712.9744
  23392308.4394   -7283831.46847  -5671253.13145                  23392307.7574
     -1908.7214
  20925542.6904  -16009264.87548 -12902991.59246                  20925540.6914
       964.7174
  21554402.5734  -12958131.21948 -10415773.99146                  21554399.4594
      2075.0784
  20970058.3554  -22718562.26548 -17696847.95647                  20970056.4644
     -1298.1644
  21961307.4654  -12728238.24648 -11246380.19646                  21961304.9094
       982.5834
  22920176.6914   -9895455.59447  -9034823.23845                  22920175.7184
     -2241.0504
  21517125.0184  -19559960.70948 -15232820.51046                  21517123.8314
        60.0054
 06  6 27 23 58 59.9990000  0  8G 2G27G29G26G 4G10G24G 8
  19773970.6064  -27175411.39448 -21170723.23547                  19773965.0004
       694.4684
  23403238.5424   -7226396.35847  -5626498.56345                  23403237.1354
     -1920.5374
  20920077.2174  -16037987.57948 -12925372.93046                  20920074.5574
       949.9714
  21542598.9394  -13020160.33648 -10464108.36646                  21542595.6744
      2060.0544
  20977510.3274  -22679399.28448 -17666331.36446                  20977508.5404
     -1312.8424
  21955694.1024  -12757733.87147 -11269363.79846                  21955692.0924
       983.6384
  22932999.5554   -9828065.78247  -8982311.77745                  22933000.0684
     -2251.9634
  21516833.2084  -19561495.32047 -15234016.32046                  21516831.4034
        42.2224
